GFSFLT1_925_spd_000.txt.gz
Wind_Speed
15 18 17 20 19 25 26 30 35 35 37 40 38 36 34 33 31 28 24 21 22 23 20 17 14 14 12 9 8 9 6 6 8
18 20 20 20 19 28 29 31 36 40 39 39 38 38 36 34 31 30 27 23 23 23 19 16 15 14 12 13 12 11 10 7 7
18 18 17 18 18 27 32 36 38 39 40 41 41 40 40 37 34 32 28 24 25 24 21 19 18 15 14 14 14 13 12 11 10
18 17 17 17 19 32 36 37 34 35 35 36 38 44 44 40 37 34 29 27 26 25 22 20 19 18 17 17 16 14 14 13 12
8 12 16 17 18 26 28 31 32 35 35 33 40 42 41 43 39 38 34 31 28 25 23 22 20 20 19 19 18 16 15 12 12
9 11 10 11 12 15 23 28 32 32 32 39 36 35 41 40 41 41 39 34 29 27 24 22 21 20 20 19 19 16 13 13 13
10 12 12 12 11 15 24 28 30 32 34 34 31 33 39 40 44 47 43 35 30 27 24 22 23 22 21 19 17 15 14 14 16
8 9 10 14 16 13 13 19 23 26 29 30 35 37 38 45 50 41 31 32 32 22 26 27 24 22 22 20 18 17 16 17 18
11 12 16 13 10 8 10 19 24 24 27 30 32 35 39 32 23 26 29 18 27 33 31 31 29 26 24 21 20 18 19 20 21
16 15 14 11 12 11 14 22 24 26 28 24 28 30 25 21 26 26 32 25 29 43 30 32 31 28 26 24 21 16 22 21 20
12 9 8 7 6 7 15 16 20 24 24 26 29 27 22 25 30 34 33 26 30 33 33 31 26 26 27 25 23 17 22 20 21
5 4 4 4 11 10 11 15 16 20 21 23 24 22 26 30 33 38 35 32 35 35 28 26 24 23 24 24 24 22 22 16 22
9 9 9 10 9 5 0 6 12 16 15 19 21 25 28 31 33 37 32 26 22 19 16 12 10 6 3 13 30 29 20 20 18
8 11 13 11 10 8 2 3 12 17 20 24 24 27 26 27 24 27 17 15 18 15 11 8 8 8 11 16 22 41 24 16 14
11 10 11 11 9 7 5 6 13 17 12 16 22 22 24 21 21 17 13 15 16 13 10 11 10 13 15 14 24 32 19 13 12
7 8 10 12 9 8 9 3 15 12 16 18 22 23 23 22 19 19 18 17 20 16 12 12 11 22 21 20 19 15 9 10 11
5 6 7 9 13 12 5 9 9 11 16 19 23 25 25 25 23 20 20 18 10 7 6 7 9 21 22 16 12 11 9 8 8
5 7 12 10 8 11 12 15 16 18 20 24 25 27 26 24 24 27 24 18 14 9 10 16 19 22 13 14 16 13 11 9 8
7 6 7 9 9 4 9 15 19 23 30 31 35 29 26 23 23 23 22 19 10 11 14 13 8 11 9 10 8 8 9 9 10
10 8 5 1 3 5 11 16 22 25 25 19 16 16 21 26 22 26 24 18 18 14 6 8 9 9 8 6 8 7 5 4 5

GFSFLT1_925_spd_003.txt.gz
Wind_Speed
21 24 23 24 23 27 28 30 31 30 29 30 28 28 29 29 28 25 23 22 18 16 18 18 18 16 16 16 14 12 12 6 5
21 25 25 26 24 29 29 30 33 33 32 33 30 28 28 27 26 26 24 22 25 19 22 18 19 16 17 17 15 14 12 9 7
22 23 25 24 23 30 32 34 34 32 35 34 33 26 27 27 27 27 26 25 25 20 19 20 19 19 20 18 16 14 12 11 11
20 21 22 23 22 31 35 35 32 34 32 32 28 29 30 29 29 27 24 29 29 24 23 24 21 21 21 18 17 15 14 14 13
13 19 20 21 22 28 29 30 31 32 31 31 34 34 30 31 28 33 32 31 23 22 22 22 22 22 21 19 15 14 15 14 15
9 15 18 19 19 19 26 30 30 32 34 36 36 30 30 30 28 30 33 32 25 21 16 18 22 22 23 21 17 16 16 17 16
10 14 17 17 17 17 24 28 29 31 31 31 28 30 31 30 30 25 22 24 23 18 9 13 24 23 24 21 18 18 16 16 18
10 13 15 18 18 16 18 21 23 25 26 25 28 28 28 26 17 17 21 31 33 24 24 24 34 29 26 22 22 19 18 19 18
14 16 18 20 17 16 16 22 22 20 22 24 23 24 22 18 19 24 27 32 38 40 32 21 41 33 31 26 26 22 20 21 18
17 17 17 17 17 14 14 16 15 17 19 19 19 19 17 18 24 26 33 40 40 37 38 30 42 36 40 35 28 25 22 22 22
10 7 6 5 7 10 12 13 14 14 14 16 15 14 15 19 24 25 29 34 36 41 39 34 32 32 30 30 27 26 20 14 15
6 10 10 10 13 13 14 15 14 14 14 13 13 14 16 19 24 26 29 33 33 31 27 27 27 19 18 17 19 19 19 15 16
10 11 14 17 17 17 15 14 17 16 13 13 13 14 17 20 21 23 27 28 25 20 19 21 15 14 15 18 19 22 23 19 24
16 14 15 18 18 17 16 17 16 15 14 12 12 16 17 18 22 25 25 24 19 17 20 17 18 21 25 23 17 18 22 22 25
17 17 12 14 16 12 11 12 12 14 13 15 17 16 17 19 18 17 17 17 14 14 18 20 16 15 17 20 18 18 20 16 19
12 11 13 11 10 8 6 6 8 14 14 16 19 19 21 21 17 19 19 17 15 17 18 17 15 15 16 16 13 10 13 11 6
9 8 10 11 7 6 4 5 7 7 15 18 16 15 16 17 20 19 19 18 16 15 15 16 17 14 10 7 5 5 7 5 5
9 8 11 8 6 5 4 4 6 10 14 16 19 20 20 20 19 20 16 12 13 11 8 13 9 10 9 7 6 8 10 9 8
9 9 7 7 6 4 3 5 7 8 11 12 10 12 15 16 15 14 15 14 11 11 11 10 7 8 5 5 6 7 10 8 5
12 11 8 7 5 3 4 5 8 12 14 12 12 12 12 14 15 17 14 12 11 8 4 5 6 7 6 6 7 6 4 2 1

GFSFLT1_925_spd_006.txt.gz
Wind_Speed
19 24 24 25 25 29 32 33 33 31 29 28 27 27 27 26 25 24 22 20 18 16 14 13 11 13 11 10 10 9 9 8 8
17 22 26 26 25 32 32 33 33 33 30 29 28 27 26 27 25 25 22 19 18 16 14 12 12 14 12 10 11 11 11 11 9
17 20 22 25 25 32 35 35 35 34 33 31 27 28 27 27 26 24 23 22 22 22 17 13 12 14 13 13 11 12 13 12 11
16 18 21 23 25 33 34 34 34 34 31 30 30 29 30 28 26 25 25 26 24 18 14 12 13 12 13 13 12 14 16 14 12
11 13 18 21 22 27 33 35 34 34 33 31 31 33 30 28 26 26 28 26 26 25 20 18 18 10 11 13 12 15 18 17 14
7 8 13 17 20 22 27 33 34 35 34 34 32 30 29 28 29 30 29 27 23 24 24 24 24 21 19 18 19 19 20 20 18
10 9 12 16 18 20 25 29 30 31 33 32 31 29 29 29 30 27 27 25 28 31 30 30 31 31 27 19 21 22 22 21 19
12 12 14 18 19 18 18 24 26 28 28 28 28 27 26 27 23 23 23 25 29 36 37 37 36 35 27 23 23 26 25 22 20
15 16 16 19 19 19 20 23 24 24 24 23 22 22 22 21 20 22 25 29 29 31 40 46 38 34 28 24 28 26 26 23 20
17 18 18 19 20 17 17 22 22 21 20 20 20 20 20 22 23 25 26 26 27 32 35 31 25 19 20 27 27 26 27 26 22
17 15 15 16 16 15 19 20 21 20 20 20 21 20 21 21 22 23 24 26 28 31 31 29 23 17 18 25 27 24 24 23 20
13 13 13 15 18 20 23 23 22 22 21 21 21 20 20 21 22 22 21 24 27 30 30 30 25 18 17 23 22 23 26 27 22
10 14 14 16 24 24 24 25 25 23 22 21 21 21 22 22 22 23 24 22 22 24 25 25 24 18 19 21 21 22 26 26 25
11 14 17 26 25 23 24 25 24 22 21 19 19 20 20 20 21 21 20 20 21 19 19 18 18 18 22 20 25 19 23 27 28
18 20 19 25 23 23 21 21 20 19 16 15 16 15 16 16 17 17 17 18 19 19 19 18 15 19 20 21 20 20 17 23 25
18 20 16 21 20 19 17 15 13 13 13 14 15 15 15 15 14 14 13 16 16 16 16 16 15 16 18 19 13 12 14 15 14
15 14 13 17 16 14 13 12 13 14 14 13 14 14 13 13 13 14 13 13 13 13 13 13 15 15 6 7 8 10 6 10 11
13 12 12 11 10 10 10 11 12 12 12 12 13 13 14 15 14 13 10 6 6 9 3 5 7 8 9 12 12 11 13 13 12
9 10 12 8 8 9 10 11 12 12 14 14 15 13 11 11 11 11 10 8 6 7 4 6 7 7 7 6 10 12 17 14 10
12 13 12 5 5 7 10 11 13 12 12 12 13 11 11 10 8 10 10 10 11 11 4 5 6 8 10 9 10 12 13 8 5

GFSFLT1_925_spd_009.txt.gz
Wind_Speed
15 23 22 24 26 26 30 33 32 31 31 30 30 29 28 26 25 24 22 21 16 17 13 12 16 16 14 12 10 9 7 8 7
12 19 22 26 26 30 30 33 35 35 31 32 31 31 28 28 27 27 25 23 24 17 17 15 16 16 16 14 12 10 9 9 10
14 15 20 23 24 28 32 35 35 35 33 32 31 30 29 29 29 28 25 22 21 23 20 21 21 20 19 17 18 16 13 12 11
17 15 18 21 23 31 35 35 35 36 35 33 32 32 30 29 30 29 29 27 26 24 22 22 19 23 23 22 20 20 18 14 11
16 14 18 19 22 26 32 34 36 37 36 37 35 32 31 31 30 31 31 30 28 28 27 25 26 27 28 26 26 22 18 17 16
20 7 11 17 18 22 23 33 34 37 37 38 36 33 33 32 33 32 31 31 30 32 30 29 29 30 30 28 28 25 24 20 18
12 6 5 12 17 19 21 30 33 34 36 37 35 34 34 33 34 33 32 31 33 31 32 32 34 33 30 29 28 26 23 21 19
18 16 13 13 17 16 17 23 31 33 32 33 34 32 32 32 31 30 30 31 33 31 31 34 34 34 30 28 25 21 22 19 18
18 18 13 14 16 17 18 21 25 31 32 31 33 32 33 31 30 30 30 30 28 27 29 29 29 27 27 27 26 22 22 20 18
21 22 20 14 16 19 18 27 26 27 30 29 29 28 27 25 28 30 28 26 26 28 27 29 31 31 26 22 21 20 23 22 19
21 22 23 14 15 18 24 28 29 28 29 29 27 25 23 24 24 24 23 24 27 24 27 30 28 26 23 18 19 20 20 20 21
21 20 17 12 19 25 25 28 28 26 27 26 24 23 22 23 24 24 24 25 25 24 25 25 26 25 23 21 20 17 22 23 21
14 15 13 13 22 27 26 25 30 28 28 27 25 25 24 23 23 23 23 21 20 20 20 19 19 22 21 18 16 18 20 23 26
14 16 12 18 21 20 24 25 28 24 25 25 25 23 22 22 21 21 19 17 16 15 15 14 17 19 18 16 15 17 21 22 23
12 14 17 23 18 20 23 24 26 22 20 22 23 23 22 20 19 17 16 18 14 14 14 13 13 14 14 13 13 13 15 17 22
11 13 15 22 21 22 22 22 22 19 18 20 20 20 20 18 17 13 15 15 14 11 10 11 13 14 15 10 11 9 14 12 11
17 17 17 24 22 19 17 17 17 17 16 18 18 17 18 18 17 14 14 13 12 13 14 14 13 8 5 5 6 9 5 9 12
14 14 19 21 18 18 18 17 16 14 14 15 16 17 17 16 17 15 14 10 8 5 5 6 6 6 7 8 8 10 9 3 10
12 13 19 18 18 18 16 16 15 14 13 15 17 17 17 16 16 15 16 13 10 9 6 5 4 6 5 5 7 13 17 15 9
14 15 17 17 16 17 16 15 15 13 14 14 16 14 15 14 15 19 19 14 15 13 6 5 4 6 8 6 9 11 13 14 11

GFSFLT1_925_spd_012.txt.gz
Wind_Speed
24 25 22 23 24 23 32 36 34 34 37 36 35 35 31 31 31 23 24 21 17 19 19 21 27 27 24 18 17 17 18 15 17
18 24 23 23 23 26 31 35 36 36 36 37 36 35 32 32 32 30 25 24 26 18 23 16 26 29 24 22 19 16 16 16 16
13 13 21 21 20 23 30 34 36 35 35 38 36 35 35 33 33 33 31 28 28 29 22 23 26 27 26 23 23 24 21 17 18
15 11 15 19 21 27 32 33 35 36 37 35 36 36 35 34 34 33 35 29 32 29 30 26 24 29 28 27 26 25 25 23 22
13 17 13 16 18 20 29 32 34 36 36 35 37 37 36 37 36 34 34 35 30 33 29 29 35 30 30 29 30 29 29 27 22
14 6 2 17 18 21 21 31 34 35 37 37 36 37 38 37 35 35 36 36 36 29 32 33 32 33 35 33 34 33 35 32 27
12 8 7 13 12 18 20 32 35 37 37 38 37 38 38 37 37 38 38 35 34 35 34 35 32 34 32 32 33 35 35 29 26
13 8 10 6 6 11 19 24 33 37 36 39 39 39 38 38 37 38 35 34 34 35 35 32 32 29 29 30 30 29 28 27 26
12 11 9 14 12 9 12 20 31 36 37 40 38 38 39 38 38 37 37 35 34 31 31 30 30 30 30 28 27 27 28 26 24
13 13 11 8 12 12 10 21 33 35 38 37 38 34 37 37 37 36 34 33 30 29 29 29 29 28 27 23 23 26 24 31 27
11 16 15 12 10 13 17 23 29 32 33 34 35 29 34 34 33 33 32 30 29 28 26 25 22 21 22 25 20 20 21 17 21
15 15 12 13 16 23 24 25 28 29 33 34 26 33 28 33 28 29 28 27 24 22 20 18 19 19 21 18 19 20 21 22 26
18 19 14 9 21 23 25 25 27 28 26 30 32 27 28 25 26 27 25 23 20 20 20 17 17 19 19 20 24 22 22 23 25
14 17 14 4 14 14 25 28 28 26 26 25 28 23 22 21 21 21 20 18 20 16 15 14 17 17 18 21 24 21 19 20 26
8 2 3 11 8 13 23 25 25 20 17 20 21 22 21 20 19 18 16 17 15 16 16 15 15 15 16 17 16 15 16 17 22
6 4 7 13 13 12 14 18 24 19 20 24 24 23 22 20 19 15 20 20 18 17 15 14 14 14 14 14 10 11 13 15 16
7 8 9 17 17 11 13 22 22 23 25 26 25 24 21 22 21 19 19 19 19 15 13 11 11 12 8 7 8 10 10 12 14
12 13 13 17 14 13 16 22 24 24 23 25 24 23 20 20 22 20 19 16 12 12 11 11 11 12 12 11 13 14 12 8 9
15 14 18 16 17 17 19 20 20 20 22 22 24 21 19 19 19 17 14 15 12 11 11 9 8 10 13 10 9 12 12 8 8
10 14 15 16 16 17 18 18 16 17 18 21 25 23 21 21 22 20 19 17 16 12 9 8 8 7 7 6 9 10 11 10 11

GFSFLT1_925_spd_015.txt.gz
Wind_Speed
23 33 22 25 25 27 36 34 37 38 41 39 40 40 41 41 33 34 35 32 17 31 31 31 28 28 26 20 18 18 16 15 14
29 23 21 23 23 31 35 37 39 42 39 39 41 39 41 41 41 37 37 34 30 24 28 28 31 32 30 25 21 23 20 20 17
20 15 19 19 22 26 37 42 40 43 42 44 42 41 38 40 42 43 40 33 33 30 26 25 30 37 34 30 25 24 24 23 20
22 23 25 24 24 31 38 39 39 41 43 41 40 40 39 37 39 41 39 36 32 34 29 29 25 33 36 34 30 28 27 26 23
24 16 30 23 24 23 32 39 39 39 39 42 43 42 39 38 37 35 35 37 39 35 33 32 32 33 38 36 35 32 31 30 28
7 7 10 19 21 21 20 34 39 39 39 40 42 40 39 37 36 35 36 39 38 37 38 37 35 36 39 41 38 35 34 34 31
13 8 8 13 22 23 23 34 38 39 39 40 41 40 39 37 38 40 39 38 39 41 36 40 40 39 41 41 40 37 36 35 33
8 9 9 9 18 20 21 28 36 39 40 42 42 40 39 39 39 38 36 36 35 38 38 36 39 38 37 39 38 36 36 36 34
12 8 8 8 19 24 22 24 31 37 40 42 42 41 40 39 36 37 36 35 35 35 37 36 35 35 35 33 33 35 37 37 35
11 10 9 9 10 20 20 29 36 36 41 43 43 40 40 39 38 36 37 33 34 35 34 33 32 33 34 33 33 34 32 28 32
4 8 6 8 12 9 24 31 36 42 39 41 42 39 39 41 39 39 35 36 35 33 32 33 34 35 33 32 30 28 27 28 29
11 8 14 5 10 17 23 34 37 35 35 37 39 36 38 42 41 37 36 34 33 31 29 30 31 31 27 29 27 26 26 21 19
10 12 18 15 20 22 27 30 36 36 35 33 36 39 38 38 39 35 34 33 30 30 30 29 24 22 23 22 22 24 26 26 26
6 3 11 20 22 18 25 29 35 31 33 34 35 33 30 33 33 33 33 32 33 32 27 24 21 19 19 21 19 21 20 21 26
5 5 3 13 9 12 27 29 33 23 24 28 31 31 30 31 32 30 36 36 30 26 24 21 20 21 20 19 18 17 19 20 22
6 9 8 8 9 12 23 28 27 21 25 34 34 32 32 33 32 32 32 31 31 26 23 23 21 20 18 17 13 16 17 17 18
8 4 9 15 13 12 11 27 26 32 34 37 36 31 30 32 33 31 28 26 26 25 22 20 19 18 16 14 16 16 14 14 15
12 7 5 18 17 14 16 26 28 30 32 38 32 30 28 29 29 27 28 24 21 22 19 16 17 16 18 18 16 15 13 11 13
16 24 12 15 19 26 24 28 28 30 34 39 33 27 24 24 28 28 29 27 23 17 16 12 13 14 16 16 13 14 12 8 6
19 29 33 20 19 23 27 26 28 29 33 35 30 27 26 26 25 26 25 26 25 21 15 13 13 15 16 13 19 16 13 10 10

GFSFLT1_925_spd_018.txt.gz
Wind_Speed
17 22 24 27 26 29 37 37 38 39 40 40 40 43 45 45 42 38 34 31 33 28 29 36 33 31 30 27 24 19 20 18 15
21 26 23 26 23 31 37 36 40 43 42 41 42 45 44 45 45 41 36 34 31 25 28 33 37 33 33 30 27 23 23 21 18
25 29 26 26 25 29 37 41 40 43 44 45 46 45 44 43 46 43 38 37 37 34 26 34 36 35 35 33 30 25 24 24 21
29 27 23 21 21 29 39 40 37 40 41 42 40 42 41 39 41 41 40 40 39 37 33 33 37 39 39 36 33 30 28 27 24
27 28 23 17 17 21 28 36 36 41 40 41 42 42 40 39 39 38 40 42 45 39 35 33 38 41 42 40 38 35 32 30 29
12 17 7 8 14 16 20 31 36 39 39 43 42 41 38 37 37 38 40 44 43 46 42 39 38 37 39 41 41 39 36 33 31
13 11 13 9 11 18 20 32 37 39 40 42 42 41 40 38 39 41 41 42 43 43 44 42 42 39 37 37 39 41 39 37 35
16 15 14 10 16 18 20 28 35 37 38 40 43 42 41 43 42 40 38 37 40 41 41 39 40 39 38 37 38 41 41 40 39
10 12 10 15 23 26 24 26 34 39 39 41 41 41 43 40 40 38 38 36 36 37 37 38 38 38 38 38 39 41 41 41 41
12 13 12 16 21 22 22 31 38 37 40 40 41 43 39 39 39 39 39 36 34 34 35 34 36 34 33 36 39 40 40 39 38
10 10 9 9 17 21 32 38 37 42 40 41 41 41 39 39 39 39 36 35 35 32 32 34 34 35 35 35 38 39 38 36 33
12 10 9 9 14 18 29 30 36 35 34 37 37 36 39 39 39 36 35 35 34 32 31 30 34 38 37 38 31 36 36 31 28
10 9 10 10 16 25 22 29 35 31 32 36 38 42 43 43 39 37 36 35 33 33 33 36 35 32 36 30 33 30 28 26 25
4 8 11 14 20 17 30 37 30 33 37 35 45 45 39 36 39 38 37 33 33 33 33 31 30 28 25 23 23 24 18 19 22
6 8 5 11 7 9 27 31 36 32 29 46 44 36 35 35 38 35 33 36 34 34 34 30 26 23 23 19 16 15 16 19 21
6 9 9 9 7 10 16 24 33 27 38 30 30 30 30 31 34 35 37 37 34 31 32 26 22 23 23 21 17 16 15 17 19
10 12 14 19 12 4 2 17 27 34 34 37 36 31 30 32 34 33 34 34 35 31 27 23 26 24 23 22 19 18 18 20 19
9 9 11 21 19 13 11 17 18 21 31 43 35 30 28 26 28 31 31 27 20 27 32 35 29 27 25 23 20 22 19 16 16
6 8 10 12 14 17 21 30 5 30 31 31 37 36 37 21 26 24 27 34 26 21 24 24 23 22 22 22 17 17 16 14 11
5 9 9 9 8 6 20 41 44 27 31 36 29 27 26 33 35 32 33 33 27 19 21 22 22 22 23 21 24 22 19 14 12

GFSFLT1_925_spd_021.txt.gz
Wind_Speed
23 24 23 25 25 27 34 38 37 37 39 39 41 44 45 45 45 42 41 39 35 34 32 29 27 32 30 28 25 23 19 21 19
21 24 25 27 26 30 35 34 38 42 40 40 41 44 43 41 44 39 38 41 38 34 35 30 27 33 34 32 29 26 23 23 22
18 21 23 24 23 26 39 40 40 42 44 45 45 46 43 42 45 43 40 41 39 34 35 33 31 32 36 34 32 30 26 25 24
19 19 22 23 22 30 33 35 35 42 41 41 41 40 40 38 40 39 39 42 41 38 35 33 32 32 37 37 34 33 30 28 26
19 21 22 24 24 20 25 31 34 38 41 41 43 42 41 41 42 38 39 44 44 40 40 37 34 30 34 39 37 37 35 32 30
12 15 13 12 8 12 17 27 33 35 39 42 41 41 40 38 39 39 40 43 46 44 43 41 38 35 36 39 39 38 38 35 33
9 9 13 12 9 9 13 27 34 36 39 41 41 40 40 40 40 42 42 43 44 42 44 42 40 40 38 39 41 41 39 39 37
7 9 12 11 14 12 14 20 29 33 34 35 39 39 39 42 40 41 38 38 42 42 41 41 43 40 38 38 39 41 41 40 41
10 12 18 20 22 19 19 23 33 37 35 36 39 39 42 40 39 39 38 37 38 37 38 40 41 41 41 39 40 40 39 40 40
11 12 16 12 19 21 21 27 34 34 38 38 40 42 39 38 39 39 38 36 35 37 38 37 40 40 40 41 41 41 41 38 38
11 11 11 11 12 10 17 27 30 35 33 37 40 39 37 36 38 40 37 35 36 35 35 38 37 40 40 40 44 43 38 36 36
12 10 11 12 17 21 25 25 31 30 30 34 34 35 37 39 40 38 37 37 37 35 33 33 36 37 39 40 37 34 32 31 32
10 10 5 7 17 18 20 22 25 27 28 31 34 37 40 42 42 40 40 40 37 35 35 33 30 36 36 36 34 31 28 24 28
2 3 6 7 4 10 26 26 25 24 27 28 39 39 38 35 37 40 40 36 35 37 35 30 29 29 30 33 32 29 25 21 26
9 9 9 12 2 6 10 12 27 25 24 42 39 35 34 36 38 38 35 35 32 33 31 30 28 28 31 33 32 28 26 21 20
10 8 6 8 7 8 7 8 19 15 34 35 31 30 34 33 35 35 34 36 34 31 33 30 28 30 26 22 23 25 23 21 20
9 8 9 9 10 9 9 23 17 16 25 26 28 32 36 34 33 32 37 39 35 35 32 29 28 25 23 28 32 29 25 22 24
6 6 7 13 8 7 9 17 20 26 20 16 24 24 25 28 31 34 28 24 22 27 25 29 28 25 27 28 24 38 29 29 28
4 5 7 8 10 14 20 24 23 18 21 14 20 21 22 23 24 24 28 31 30 21 18 24 19 21 21 29 28 26 24 23 20
7 11 14 12 7 11 18 20 21 28 21 11 10 17 15 19 22 28 28 25 30 26 24 12 11 14 21 22 20 23 24 21 19

GFSFLT1_925_spd_024.txt.gz
Wind_Speed
21 21 21 23 22 24 33 36 36 37 38 39 40 42 45 47 45 40 41 41 37 34 33 31 27 24 24 25 24 20 19 20 18
15 20 21 24 24 28 31 35 38 41 39 40 40 43 44 43 44 41 38 40 41 39 35 34 32 27 26 28 27 24 22 22 21
17 19 20 22 21 27 35 36 40 39 42 43 43 43 42 43 47 47 44 43 43 43 39 35 33 31 28 29 30 28 26 25 23
18 18 19 21 20 29 36 35 33 40 40 38 39 40 40 40 39 40 41 43 47 44 41 40 35 33 31 28 32 31 30 29 26
11 13 16 19 21 21 27 32 34 36 39 39 43 43 41 43 43 40 41 44 47 45 42 40 37 34 34 31 32 34 33 32 30
9 11 11 12 12 15 18 29 34 35 38 42 39 38 40 39 39 39 41 45 46 46 43 40 37 36 36 34 34 36 35 34 34
10 10 10 11 11 16 17 29 35 35 35 37 36 36 38 40 42 43 44 46 46 44 44 42 40 41 39 37 33 35 37 37 36
8 8 8 10 13 13 12 20 28 33 34 36 38 38 38 41 41 41 41 39 43 43 44 45 44 42 42 41 39 37 39 39 38
10 10 10 10 11 12 14 19 28 33 34 39 41 40 43 40 37 39 41 40 41 41 40 41 41 42 42 42 44 42 39 37 38
13 13 11 10 14 15 15 23 32 33 37 35 38 41 40 39 39 40 41 38 37 42 41 39 42 41 40 43 45 43 40 38 38
14 13 12 11 10 12 21 28 27 27 25 34 36 37 36 36 38 39 36 36 38 39 38 40 39 40 43 41 43 44 41 39 38
14 13 12 11 13 16 22 23 30 30 29 30 29 32 34 35 39 38 38 38 41 39 36 35 37 37 38 43 43 43 42 39 39
13 10 5 7 12 12 9 27 28 28 25 28 30 34 40 41 42 40 40 41 39 36 33 33 32 35 43 45 45 43 42 39 41
2 1 2 7 5 6 7 10 22 21 24 27 40 35 33 34 37 40 40 37 33 30 30 28 32 34 34 41 43 42 41 40 41
6 8 8 12 8 11 11 4 16 10 17 31 20 24 30 33 36 35 35 35 34 34 34 33 31 31 30 33 40 42 40 37 36
7 7 7 11 13 14 20 20 13 5 9 5 10 19 25 25 24 26 28 35 37 36 39 30 26 25 26 27 27 39 39 31 31
7 6 6 7 12 10 10 18 18 14 10 5 4 16 23 24 26 27 29 28 27 31 33 35 39 31 33 29 24 29 29 33 32
6 5 5 10 9 8 8 12 11 9 9 9 7 10 19 22 23 27 24 23 27 29 27 29 20 20 12 15 14 25 32 30 27
11 10 12 13 14 11 10 11 13 11 8 4 4 9 15 25 25 26 25 22 11 20 24 20 24 32 40 34 28 7 16 15 26
10 13 13 12 10 13 18 20 20 22 19 10 8 14 19 22 24 27 28 25 25 21 34 43 42 29 38 35 37 19 16 24 29

GFSFLT1_925_spd_027.txt.gz
Wind_Speed
19 22 24 25 25 29 32 36 38 38 36 36 36 37 39 39 38 34 35 32 27 25 22 22 22 25 23 21 20 19 18 13 13
18 22 24 27 26 31 33 36 38 39 39 39 39 41 39 39 38 37 34 33 34 28 26 21 22 25 25 22 21 21 21 16 17
19 19 21 23 23 29 34 38 39 41 40 40 40 39 39 39 40 41 40 35 35 33 30 30 22 25 25 24 22 22 24 19 19
20 19 20 21 22 30 36 34 33 37 40 39 38 40 40 39 38 38 37 35 36 38 36 35 30 28 28 26 24 23 26 24 21
13 14 17 18 20 23 28 32 33 37 38 40 43 43 41 41 39 39 39 41 40 40 38 37 39 35 31 27 27 25 28 27 23
12 12 14 14 14 17 20 29 33 35 39 43 41 38 39 37 38 38 40 41 41 39 39 38 37 34 33 30 27 29 29 30 30
10 10 11 12 13 15 18 28 31 34 37 38 38 39 39 40 41 43 41 41 41 40 41 38 37 39 38 34 30 30 31 29 29
9 11 10 12 14 14 15 21 28 33 34 34 37 36 38 42 42 41 39 40 40 39 37 41 42 39 37 37 33 32 31 30 29
16 14 13 12 12 13 16 20 28 32 34 37 39 39 42 41 38 39 42 41 41 40 39 38 36 37 38 39 38 37 40 38 31
17 14 13 13 14 13 13 23 29 32 37 33 37 40 39 35 36 38 40 39 38 40 39 37 39 39 39 40 42 42 47 44 35
19 18 17 13 14 13 21 26 26 30 29 34 34 34 31 32 34 37 36 37 39 39 40 41 40 39 40 40 43 45 48 47 45
20 18 16 13 15 17 18 21 26 26 27 30 30 32 32 34 37 35 34 38 41 40 38 38 40 37 38 41 41 44 47 46 42
17 17 15 13 14 12 14 16 20 23 27 26 29 33 39 39 38 38 39 41 38 37 38 38 36 38 39 41 39 40 46 45 38
6 9 12 14 9 9 8 11 19 23 23 26 34 22 21 25 29 32 31 28 26 28 30 31 34 37 40 41 38 33 44 45 39
4 2 3 6 8 6 3 6 16 16 17 18 16 18 23 27 30 31 29 31 32 31 26 25 25 28 29 32 34 40 35 42 45
6 6 9 10 11 12 8 7 10 11 9 11 13 18 21 24 25 27 28 29 28 27 30 27 20 23 25 22 25 29 40 38 38
7 8 9 12 13 12 10 12 12 10 7 6 10 14 18 21 25 27 29 30 31 33 34 29 33 30 28 29 26 26 32 37 40
7 8 9 10 11 10 11 9 9 5 3 1 5 10 14 19 23 27 27 32 34 37 40 42 44 42 39 34 25 26 27 29 25
7 8 10 11 12 11 8 8 8 7 6 3 4 6 7 12 17 21 26 27 26 36 36 40 37 34 31 30 36 36 37 39 38
6 10 11 11 10 10 10 8 9 8 7 5 3 5 8 10 11 16 17 17 23 16 15 24 35 38 37 35 38 48 54 40 28

GFSFLT1_925_spd_033.txt.gz
Wind_Speed
22 22 22 25 25 27 32 34 36 35 35 35 35 36 35 34 30 29 30 25 23 24 21 21 17 28 23 21 19 18 16 14 13
22 23 22 24 26 32 33 35 37 39 38 40 39 39 37 36 36 34 31 30 31 23 24 21 19 21 22 23 22 20 19 18 17
23 21 23 23 24 29 36 39 40 40 41 42 45 42 42 40 38 37 35 31 29 30 25 25 17 24 22 23 24 23 22 20 18
21 20 22 21 23 31 36 36 37 40 40 38 39 42 41 41 40 38 36 36 33 33 30 26 30 23 26 25 26 26 25 24 19
23 21 19 20 22 23 31 36 38 40 40 42 42 41 42 41 39 39 39 38 37 34 34 32 29 29 27 27 28 28 27 27 25
16 17 18 20 21 22 20 33 35 39 40 43 42 40 40 39 41 40 41 39 38 39 36 35 34 32 31 31 31 31 30 29 28
10 5 5 13 16 19 20 27 29 32 36 40 39 40 40 40 41 43 41 39 39 38 38 37 36 35 35 35 35 34 34 34 32
8 8 7 8 11 12 11 16 22 29 32 32 37 37 39 40 40 38 37 38 39 39 38 39 38 37 38 37 38 38 37 37 34
5 7 8 7 8 12 15 17 20 24 29 31 31 33 38 36 37 36 37 36 37 38 39 39 39 40 40 40 40 40 42 39 35
10 10 11 10 11 11 14 20 21 23 25 30 32 33 31 34 36 37 36 35 35 39 40 37 40 39 38 40 42 43 44 45 39
12 12 11 11 11 12 16 18 21 23 23 27 30 30 33 35 37 36 34 35 37 36 34 37 37 37 38 39 42 44 46 47 48
17 16 15 14 16 18 15 12 14 16 23 24 27 30 34 37 34 34 35 38 38 36 35 35 37 37 37 41 41 42 47 48 45
13 15 14 13 17 16 16 18 21 19 21 23 27 33 32 32 32 34 36 36 35 34 35 36 33 36 39 41 42 44 47 50 44
16 16 15 19 12 13 15 16 17 17 21 22 30 25 27 30 33 34 35 33 33 34 34 32 34 35 37 41 44 45 51 53 49
17 17 17 18 16 13 12 16 15 15 17 23 20 23 25 27 29 31 31 31 29 29 30 31 30 32 33 37 43 48 48 56 59
17 15 13 15 16 13 11 10 13 13 15 14 15 20 21 22 24 27 26 27 27 27 28 30 30 30 31 34 35 38 43 49 56
13 11 10 9 9 8 5 5 9 13 13 14 15 16 17 19 20 22 23 25 26 28 27 28 29 26 28 29 29 31 33 36 47
9 8 8 7 4 1 3 3 4 3 1 7 12 14 15 16 17 19 19 21 23 25 27 27 26 27 28 26 26 29 31 30 29
12 6 4 2 1 4 5 5 5 4 3 3 10 11 12 14 14 16 16 16 18 22 21 19 29 32 26 23 22 25 24 28 30
9 7 5 3 3 6 6 7 5 3 2 3 2 2 4 3 4 6 7 13 14 14 19 31 32 32 30 30 31 37 37 29 30

GFSFLT1_925_spd_036.txt.gz
Wind_Speed
24 24 22 25 27 25 34 34 38 39 40 40 40 38 36 37 30 28 35 23 23 27 23 26 25 28 28 25 20 20 17 15 15
25 25 23 26 26 29 35 36 38 40 41 40 40 41 36 34 40 31 30 30 27 23 27 20 23 29 31 29 25 23 22 21 19
21 23 22 23 24 26 36 40 40 40 40 42 44 42 41 40 39 38 33 33 31 30 23 28 17 29 33 28 27 24 25 22 21
17 20 22 21 24 30 38 38 37 40 39 39 39 43 43 41 39 39 38 32 33 30 33 22 30 23 31 31 28 28 27 27 23
15 16 20 21 23 24 30 36 37 40 40 38 40 39 38 38 37 37 38 39 35 33 30 35 27 31 29 29 31 30 32 30 29
18 13 14 20 22 21 22 33 36 37 40 40 36 36 36 36 38 38 38 38 40 36 37 35 37 29 31 34 32 33 33 33 32
11 12 11 17 19 20 19 30 33 34 37 38 38 37 36 37 38 38 39 37 38 39 39 38 38 38 36 33 33 33 34 33 31
9 10 6 9 14 17 18 24 32 34 34 38 38 38 40 40 39 38 37 38 38 39 40 42 40 39 37 36 35 36 35 35 35
10 8 6 4 3 2 3 17 25 35 35 35 39 39 40 40 40 40 39 39 39 38 39 38 37 37 38 38 39 40 41 38 35
5 1 1 1 2 5 6 9 18 24 31 31 34 38 36 38 40 39 40 39 39 38 39 38 39 38 39 41 43 44 46 46 42
5 4 4 6 8 8 10 17 21 22 23 31 30 27 32 34 35 37 37 39 40 39 38 38 39 38 39 40 44 46 48 49 50
3 6 8 7 11 14 13 20 25 29 27 28 27 27 27 31 32 33 36 38 39 37 36 37 38 37 38 41 42 43 49 49 50
12 12 11 11 16 19 14 12 12 23 25 24 25 31 33 29 32 34 35 36 35 35 36 36 34 36 39 41 43 43 46 50 44
11 10 11 12 14 14 11 10 12 8 19 24 30 32 29 31 34 36 34 32 32 32 33 31 33 34 34 39 43 44 44 48 47
13 13 13 13 10 11 18 7 7 11 11 17 16 23 30 29 29 31 29 30 28 29 29 30 31 31 33 35 39 40 41 46 50
14 15 10 13 11 11 17 3 7 11 13 8 13 15 21 25 24 25 28 26 27 25 27 27 28 29 27 29 29 29 37 40 42
15 18 10 14 16 11 6 3 5 10 11 9 10 10 14 18 19 21 24 24 25 26 25 25 25 22 24 24 22 25 29 27 37
12 18 20 12 12 10 8 8 8 10 6 4 10 11 12 13 16 20 19 21 20 24 27 24 23 24 25 22 19 21 11 15 25
10 15 20 12 9 7 3 2 2 5 5 6 5 8 9 12 14 15 17 17 19 22 15 19 27 25 18 16 13 18 23 25 22
12 18 19 11 10 6 4 5 4 4 4 2 4 5 3 13 18 14 21 19 17 16 10 11 13 5 3 7 9 15 18 20 23

GFSFLT1_925_spd_039.txt.gz
Wind_Speed
26 29 24 27 28 30 35 38 41 39 40 40 43 43 44 43 34 35 34 30 29 30 28 28 29 29 27 26 23 22 19 18 16
28 26 28 29 28 33 38 37 41 44 41 41 41 40 38 40 42 34 38 40 29 26 28 29 29 29 33 30 28 24 24 22 21
27 27 28 27 27 30 39 40 42 44 42 42 42 41 37 40 47 47 34 37 38 28 28 30 23 33 35 36 33 27 28 25 24
19 25 26 26 26 34 41 43 39 42 41 40 38 40 41 38 36 36 37 33 37 37 31 25 31 24 33 39 37 32 30 29 27
13 23 22 27 27 29 34 38 37 40 41 41 43 41 37 35 32 32 35 36 35 38 35 36 26 28 26 34 36 34 31 30 30
10 16 20 26 25 24 25 35 37 38 40 40 39 38 36 35 35 33 35 36 39 36 39 39 37 30 28 32 36 36 36 36 35
10 12 16 24 24 24 26 35 37 37 37 37 37 37 37 36 37 36 36 37 39 41 40 40 41 37 32 34 38 40 40 38 38
8 8 15 20 24 21 22 29 35 36 38 40 39 38 38 40 38 39 37 38 37 39 40 37 40 38 38 39 39 42 43 41 42
12 11 9 10 12 20 22 29 35 39 38 41 43 40 42 39 39 38 40 38 38 36 37 39 37 40 40 40 41 40 43 44 40
10 10 10 10 9 8 8 19 29 34 37 40 40 41 39 40 39 39 39 40 37 39 39 36 38 39 40 41 42 41 42 46 43
9 10 9 9 6 4 4 10 28 34 33 34 39 38 38 36 39 38 39 38 40 38 38 37 38 37 41 40 43 44 45 46 49
10 9 8 7 13 13 19 14 27 32 30 34 32 35 34 38 38 39 37 39 38 38 36 35 37 36 37 40 41 42 45 45 48
13 10 7 8 16 16 18 15 5 26 29 32 30 34 37 36 38 38 39 39 38 37 37 37 33 36 37 39 41 39 40 41 44
10 13 11 17 12 10 11 15 7 5 15 24 37 34 33 33 37 41 41 36 35 34 33 32 33 33 35 36 37 35 34 39 42
12 14 19 20 15 14 15 13 2 4 4 4 21 26 34 38 39 37 30 34 32 31 30 30 29 29 29 31 31 31 32 34 40
8 10 15 23 16 19 26 16 3 2 4 2 3 12 27 33 35 36 32 29 30 27 28 28 27 26 24 25 26 26 27 32 37
7 9 12 22 20 14 17 23 19 16 10 8 7 7 12 24 31 30 29 29 28 26 22 23 22 20 21 21 22 26 28 31 34
7 9 17 20 19 18 11 13 15 17 17 15 13 15 10 16 23 25 24 27 20 24 23 23 22 24 21 21 21 22 17 14 12
9 10 19 17 21 23 17 8 10 15 16 14 15 11 12 16 20 20 21 22 20 14 19 23 25 23 22 10 13 10 10 9 9
19 16 19 16 17 22 7 5 11 16 11 12 9 7 6 11 16 19 25 25 21 15 19 19 16 11 11 8 3 2 6 10 12

GFSFLT1_925_spd_042.txt.gz
Wind_Speed
27 24 24 26 27 32 35 40 43 43 43 41 43 46 44 43 41 39 37 35 30 30 33 32 30 30 27 26 25 23 23 21 19
24 26 27 27 25 36 38 38 43 45 44 43 43 44 41 40 44 41 40 39 37 30 31 29 29 31 31 29 28 26 25 23 21
29 28 29 26 24 34 40 42 45 45 45 46 44 41 40 40 43 43 41 38 38 36 32 30 29 31 34 32 32 30 28 27 24
30 29 29 28 26 38 43 41 40 42 40 41 39 40 40 39 39 37 38 37 41 40 33 28 31 31 33 36 35 34 32 31 30
26 32 31 27 27 33 35 37 37 40 39 39 40 43 40 38 35 35 35 39 39 41 41 37 27 34 29 35 36 38 38 35 34
20 28 29 26 24 23 27 35 36 38 38 41 41 38 36 33 34 35 38 39 40 41 42 40 36 29 32 34 34 37 40 38 36
16 21 27 25 23 23 27 35 36 36 37 37 38 37 36 36 37 37 38 41 40 38 42 41 41 37 38 32 35 35 37 40 39
12 21 25 26 25 22 20 30 34 33 35 37 39 38 37 38 38 38 38 38 40 40 36 42 42 43 41 40 36 38 39 40 42
10 18 25 27 25 25 22 29 34 34 36 39 39 39 39 39 37 38 37 37 38 38 40 40 38 43 41 43 41 40 41 42 43
11 8 14 23 25 24 22 33 36 33 37 35 37 37 35 35 36 34 36 36 35 35 37 38 41 39 41 39 41 42 42 44 45
15 14 12 9 7 8 15 24 26 27 26 33 34 33 33 33 33 34 34 33 34 36 33 35 37 39 39 38 41 41 43 42 44
8 7 6 7 16 15 16 29 32 32 32 34 32 32 33 35 37 35 34 33 35 35 33 33 35 36 37 40 38 39 41 41 44
14 13 6 7 13 20 24 12 25 26 29 30 32 35 36 34 36 37 36 37 35 36 35 34 34 34 36 38 37 37 38 39 42
13 13 17 16 22 18 14 13 13 20 20 26 35 35 33 35 38 39 38 37 35 32 32 32 32 33 33 33 34 34 34 36 40
15 16 19 24 19 20 24 16 13 13 8 9 20 22 30 34 37 35 33 34 32 33 32 30 31 29 28 28 28 29 31 34 38
12 13 17 21 19 16 25 29 24 21 16 9 5 15 25 30 31 33 32 32 30 28 29 28 25 25 25 23 23 26 28 30 33
13 13 15 19 19 17 15 19 20 17 18 17 12 6 6 15 24 29 32 31 31 26 24 24 23 22 21 20 23 27 29 31 32
9 14 19 22 17 15 17 10 15 16 18 17 16 14 13 13 15 22 27 23 23 26 30 29 26 26 27 23 22 25 26 26 26
9 15 19 17 20 19 20 11 12 16 17 15 11 11 13 13 16 18 22 24 14 18 21 22 27 29 28 22 20 19 17 15 12
18 20 17 14 16 16 15 9 6 11 15 14 15 14 13 11 15 20 23 22 22 18 17 13 9 12 15 10 9 8 8 9 9

GFSFLT1_925_spd_048.txt.gz
Wind_Speed
19 17 18 20 20 27 33 34 35 35 36 37 41 44 44 44 44 42 41 37 33 33 31 28 23 22 23 22 19 16 14 14 14
17 20 20 22 22 31 32 35 39 40 38 39 40 43 44 42 42 42 40 40 34 32 29 28 25 23 23 24 22 19 18 17 17
15 20 19 20 21 30 36 39 37 38 41 41 42 44 42 42 42 45 43 41 37 33 31 27 25 23 25 26 25 24 22 22 20
16 18 20 21 23 35 37 34 37 37 39 39 38 38 39 36 38 40 40 41 40 36 32 31 28 26 23 26 27 27 27 25 23
18 19 21 22 23 27 31 37 38 39 37 37 40 41 40 41 40 38 38 40 42 38 35 31 32 28 26 27 28 28 27 29 27
8 10 11 15 15 18 26 33 36 38 37 39 38 36 37 36 35 36 38 39 42 40 37 35 33 32 32 32 30 29 28 27 29
9 9 13 16 16 19 27 33 36 37 36 38 37 36 36 35 36 37 38 40 41 41 39 37 36 36 35 33 33 31 30 29 29
10 15 13 16 19 19 20 29 30 33 34 38 38 37 35 37 37 39 39 40 41 41 41 40 38 38 38 37 35 33 31 32 32
8 12 16 19 22 22 21 29 34 36 36 37 38 36 36 37 37 38 41 41 41 40 40 40 40 41 41 41 41 40 39 37 35
12 14 14 17 23 22 21 33 37 35 38 37 38 37 36 35 34 36 37 38 37 39 40 36 39 40 39 42 44 43 41 41 41
14 16 13 10 16 18 30 34 36 29 33 36 37 34 32 34 35 34 33 32 34 35 34 37 38 37 39 39 42 44 44 43 42
13 13 9 7 11 14 24 28 30 30 31 32 31 32 34 35 36 34 33 34 34 35 32 33 36 37 37 38 39 39 39 39 41
18 16 13 7 18 24 25 26 28 28 28 29 30 33 34 32 34 36 35 38 36 34 32 33 30 31 34 38 39 38 38 38 39
16 18 18 19 15 13 22 33 32 25 25 29 29 25 28 33 37 38 38 32 31 29 29 26 27 29 31 34 35 36 35 35 39
19 20 22 27 17 14 10 22 26 21 21 20 25 30 32 33 34 32 29 31 29 29 28 27 26 26 25 29 32 32 32 32 36
14 16 21 26 21 20 21 18 21 18 8 13 21 27 32 33 32 33 31 31 28 26 29 26 25 23 23 24 27 32 32 31 32
12 15 18 23 23 20 19 23 24 18 14 12 16 20 23 27 29 28 28 27 28 27 26 25 24 24 24 23 23 27 28 28 30
10 13 20 21 18 17 18 16 18 17 15 13 15 12 10 13 21 26 26 25 25 25 26 27 25 26 23 20 20 29 25 24 25
11 13 20 21 21 20 23 19 16 15 14 13 9 7 5 4 5 12 22 26 20 25 26 26 28 23 21 24 25 18 15 16 20
16 19 22 20 18 21 23 21 19 18 15 13 11 7 5 1 3 8 15 19 20 16 8 21 23 22 20 18 16 13 14 15 17

GFSFLT1_925_spd_051.txt.gz
Wind_Speed
19 23 22 24 24 32 33 36 35 35 35 35 37 39 37 39 39 30 29 27 24 22 21 20 19 21 19 18 16 13 12 10 10
18 21 24 26 27 34 34 36 39 38 36 36 36 36 36 36 38 36 29 30 29 24 23 19 20 23 21 20 19 18 14 12 12
18 20 22 22 24 34 37 39 39 37 38 38 38 37 37 35 35 36 36 31 32 29 24 22 18 23 22 19 19 19 18 14 14
19 20 22 23 24 35 38 37 38 40 39 37 37 37 38 36 34 31 30 29 32 32 31 26 24 25 24 22 20 19 20 19 16
20 21 22 23 24 29 32 36 38 41 40 40 39 38 37 37 35 34 31 34 31 32 33 30 27 28 27 24 21 19 19 18 18
10 15 16 17 18 21 28 34 36 38 40 43 41 38 37 35 35 34 34 34 33 31 32 34 31 28 30 28 25 22 21 20 20
8 11 15 17 17 18 26 31 36 37 38 40 40 39 38 36 36 36 36 34 34 31 33 36 35 33 32 31 25 22 20 20 20
6 7 9 14 18 18 22 29 32 35 35 35 38 38 38 38 37 36 35 33 33 34 31 34 36 36 33 31 27 26 25 23 23
11 10 10 10 15 18 19 28 33 37 39 39 40 37 37 36 35 35 35 34 33 32 32 32 34 31 30 29 30 31 33 30 25
11 13 14 13 15 17 22 34 37 37 41 38 39 38 35 35 35 35 35 34 32 31 31 29 31 30 29 31 33 36 37 38 33
12 14 16 17 15 16 29 36 37 32 34 37 37 35 35 34 33 33 32 31 31 31 29 29 28 28 30 31 33 38 40 41 39
13 14 15 17 22 24 24 29 33 32 33 33 33 33 34 34 34 33 32 32 31 30 28 28 29 28 28 30 32 35 38 37 33
15 14 15 14 16 19 24 28 33 31 32 33 34 36 35 33 33 33 33 33 32 32 31 30 27 28 31 32 32 35 38 36 30
11 14 16 12 3 18 25 29 31 28 29 32 31 27 28 29 32 33 32 31 29 27 27 25 26 27 28 29 31 32 35 35 33
14 16 18 19 12 10 16 26 30 27 27 25 26 27 29 30 30 30 28 28 25 25 25 25 24 25 24 25 26 31 32 35 36
14 15 19 22 18 19 17 10 12 14 13 19 25 27 27 27 27 28 25 27 25 25 26 25 24 24 23 22 22 24 28 33 31
13 16 18 23 26 25 24 22 17 9 5 12 21 23 24 25 26 26 27 25 25 25 25 25 24 23 22 21 21 21 20 22 30
12 15 23 25 23 22 24 23 22 20 15 6 11 16 19 21 22 24 21 23 23 25 23 25 25 23 21 20 20 21 21 20 18
16 17 21 23 25 24 21 22 22 21 19 15 9 6 6 6 7 11 14 17 16 24 23 26 28 22 19 17 20 15 16 17 19
16 19 20 21 21 20 20 19 20 20 19 17 16 10 8 2 11 10 20 27 20 15 11 19 20 24 22 22 16 16 15 15 17

GFSFLT1_925_spd_054.txt.gz
Wind_Speed
20 21 22 24 26 33 36 38 39 38 37 35 35 34 32 31 30 28 26 22 19 19 17 15 13 14 15 14 12 11 9 9 9
18 20 22 25 26 35 37 39 41 40 37 38 37 37 33 32 31 31 28 25 22 21 18 16 15 16 17 16 15 14 12 11 10
16 19 20 21 23 33 37 39 40 41 40 40 40 38 35 34 33 32 31 26 25 22 21 19 17 18 19 18 17 17 15 13 12
22 18 19 20 23 34 38 36 38 42 40 39 39 40 38 35 35 33 30 29 27 25 22 21 20 19 18 19 18 18 17 16 14
21 21 19 20 21 27 32 36 37 41 42 41 40 40 38 38 36 34 32 30 29 25 24 24 23 21 19 21 21 19 20 19 18
17 17 17 18 18 20 27 34 37 39 41 42 40 38 39 39 39 37 35 32 30 28 26 25 24 23 22 22 22 21 21 21 20
10 8 13 14 16 18 26 31 34 35 39 39 39 39 38 38 39 38 37 35 32 30 29 27 27 26 25 24 23 23 22 21 21
4 5 9 14 17 18 20 26 30 35 37 37 39 38 40 39 37 36 35 34 33 32 30 29 28 27 28 25 24 25 25 24 23
6 6 6 7 9 14 17 27 30 33 36 38 39 38 40 37 35 36 37 35 34 33 32 32 29 29 29 28 27 28 29 27 24
6 6 8 9 10 12 18 26 30 33 37 37 39 38 37 37 37 37 37 35 34 34 33 31 30 29 28 30 30 30 32 33 30
9 9 9 11 12 14 20 24 28 31 32 36 36 34 36 37 37 36 34 34 35 33 32 31 29 29 29 30 31 32 35 35 32
10 12 12 14 18 21 22 23 28 30 32 35 34 35 37 38 38 36 34 34 33 32 31 30 30 29 29 30 31 32 35 35 29
13 13 15 18 22 24 26 28 28 32 34 34 36 38 39 34 33 34 34 33 33 33 31 31 30 30 30 31 31 31 35 36 29
13 14 18 18 20 20 23 24 30 29 32 35 37 33 34 33 33 33 32 31 31 31 30 28 30 28 28 30 31 30 33 36 32
13 15 16 12 7 9 10 18 26 26 26 26 27 30 31 30 31 31 29 29 27 26 26 27 25 26 26 26 26 29 29 34 35
13 14 18 18 7 5 6 13 20 22 22 24 26 27 27 27 27 29 26 27 26 26 26 25 26 25 24 24 24 26 30 34 35
12 16 19 22 18 16 16 12 9 13 15 20 22 23 23 23 24 23 23 22 23 24 25 26 25 25 24 24 24 25 23 25 30
11 15 19 23 21 17 19 21 20 17 9 16 18 18 19 19 19 21 20 20 18 21 20 19 23 23 22 22 22 23 22 21 19
14 17 21 20 23 24 23 21 21 21 20 17 8 15 16 17 17 18 18 20 11 11 12 14 17 16 16 19 18 11 18 20 18
14 17 20 19 19 21 20 23 24 24 21 18 14 11 11 13 14 15 16 10 10 8 5 15 22 25 23 19 10 20 15 15 19

GFSFLT1_925_spd_057.txt.gz
Wind_Speed
25 24 24 25 27 34 35 37 37 36 37 36 34 34 33 33 28 26 25 20 19 19 17 15 17 16 14 12 12 11 10 9 9
24 26 24 26 25 34 36 37 39 40 38 39 38 38 35 33 33 32 27 25 26 19 20 14 14 14 14 15 14 13 12 11 11
15 18 24 23 23 32 37 39 40 38 38 39 39 38 37 35 34 33 30 27 24 25 19 20 11 18 17 17 17 16 16 14 13
18 20 18 19 22 32 36 35 37 40 39 36 38 39 38 37 36 34 35 28 29 24 22 18 21 17 17 18 19 18 18 18 12
25 22 19 21 21 29 32 36 37 39 40 41 41 40 38 39 36 36 35 36 30 27 26 24 22 21 20 19 20 20 20 20 18
20 23 22 19 20 20 27 34 35 37 40 41 40 39 40 38 38 38 37 35 33 31 29 27 25 25 23 21 22 22 22 22 21
22 19 19 21 19 19 26 30 33 34 37 39 38 39 40 40 40 39 38 35 35 34 32 30 28 27 26 25 24 24 24 23 23
13 11 13 20 17 17 18 24 29 33 34 36 39 38 38 41 42 40 37 38 36 35 34 33 31 29 28 27 26 26 27 25 24
3 5 6 8 12 14 16 23 25 31 34 34 38 37 40 37 36 38 40 39 38 36 34 33 32 30 29 29 29 28 29 29 26
2 8 8 6 8 9 15 25 25 28 34 34 34 35 34 35 36 38 39 38 37 37 36 34 33 32 30 30 32 30 30 32 30
8 8 10 10 10 11 14 18 24 28 30 36 34 35 32 36 35 37 37 37 38 37 35 35 33 32 32 31 32 34 34 32 34
7 9 10 12 14 16 17 18 21 20 29 31 34 32 37 37 39 36 36 37 37 35 33 33 33 33 32 33 32 33 36 34 29
11 12 13 15 18 20 21 24 24 24 27 30 35 37 40 38 37 36 37 37 35 36 35 35 34 32 32 32 32 34 34 36 31
14 14 15 20 22 22 23 25 27 28 29 31 38 34 32 33 36 36 34 32 32 33 33 31 30 30 30 30 32 31 36 39 35
15 16 21 22 23 18 20 23 25 26 26 32 29 31 32 33 33 34 33 31 30 30 28 27 25 27 26 29 29 32 33 34 37
12 17 22 23 21 12 11 9 16 21 27 25 27 28 30 30 30 31 29 32 29 29 27 28 28 26 27 27 27 27 31 32 34
12 17 20 24 21 21 20 23 21 4 14 19 22 25 27 28 30 30 29 31 29 29 29 28 26 27 26 25 26 26 25 31 36
10 14 18 22 20 20 23 26 28 28 12 17 22 24 27 28 29 31 30 28 29 29 25 27 27 25 25 24 24 26 27 25 23
10 14 18 21 23 23 25 26 28 32 27 9 16 21 24 29 30 31 30 28 16 19 19 19 17 11 9 6 6 8 18 27 20
13 14 17 16 18 21 22 24 27 30 31 27 2 17 24 25 28 29 27 27 25 19 11 9 8 11 13 14 11 8 3 12 17

GFSFLT1_925_spd_060.txt.gz
Wind_Speed
11 29 24 24 26 31 36 37 39 39 41 39 39 33 36 32 28 31 27 16 19 15 20 24 26 25 18 14 13 11 11 9 10
15 7 7 23 23 32 35 36 40 42 42 41 40 42 36 36 31 29 25 21 21 20 20 10 25 26 21 16 14 13 13 10 13
11 8 17 22 22 30 34 38 37 38 38 41 40 39 36 36 40 34 30 31 21 24 21 20 20 23 21 20 17 16 15 14 13
21 20 13 14 14 28 35 35 36 38 38 38 39 39 39 36 35 36 38 29 34 26 29 19 23 16 19 20 20 18 18 18 15
23 19 22 16 22 43 34 36 37 38 39 38 41 40 37 38 36 37 35 37 30 32 30 30 21 23 18 20 20 21 21 21 19
17 23 26 28 27 25 31 36 36 37 40 41 37 37 38 36 37 37 38 37 36 34 35 28 26 22 25 22 22 23 23 24 23
11 21 26 24 23 24 30 38 37 37 38 39 39 40 39 39 41 40 39 38 41 34 36 36 31 29 26 27 26 26 25 25 24
10 11 7 14 12 8 19 30 36 37 34 39 39 38 41 41 40 39 37 37 37 41 37 34 34 32 30 29 28 28 28 28 26
27 7 1 7 7 9 13 16 31 33 35 36 38 38 40 37 37 37 37 38 36 37 38 37 35 34 32 31 30 31 30 30 28
18 24 10 13 14 9 12 15 25 32 34 34 36 35 35 37 37 39 41 37 39 35 38 36 37 35 34 34 34 33 32 33 33
12 25 16 13 13 17 6 23 48 31 31 32 31 35 33 36 38 39 39 39 37 38 35 37 36 36 36 35 35 36 36 34 37
11 14 26 18 18 18 20 22 22 17 26 37 35 29 36 35 39 36 38 39 40 37 36 35 36 36 36 37 35 35 38 38 34
13 15 25 28 27 24 22 23 25 20 21 26 35 37 33 36 35 37 37 38 38 37 37 37 36 36 37 36 35 36 37 39 38
15 18 23 27 26 22 26 26 23 24 24 24 30 35 33 31 34 38 35 35 35 35 35 33 34 33 33 33 36 34 38 39 40
13 14 21 25 23 20 27 20 16 25 26 31 24 30 33 33 35 32 34 35 34 34 33 33 31 32 29 31 32 35 34 36 40
13 13 18 22 20 19 25 29 25 20 27 29 27 20 34 33 32 34 33 35 33 32 33 31 31 27 28 27 29 31 34 35 36
10 15 15 21 22 21 23 29 26 22 22 17 26 25 28 32 32 32 33 29 33 31 31 31 28 29 25 27 26 26 30 36 37
12 12 16 15 19 20 24 27 23 23 27 21 23 26 26 28 28 32 31 33 32 33 33 33 32 28 29 23 25 29 28 32 38
10 10 16 16 18 21 23 26 26 28 28 25 18 14 20 24 25 28 29 31 21 31 31 32 33 33 28 21 18 19 26 34 33
8 13 18 19 15 18 20 24 26 30 32 29 22 13 14 21 25 25 28 29 24 17 18 23 26 33 27 18 15 9 9 8 16

GFSFLT1_925_spd_063.txt.gz
Wind_Speed
8 3 4 20 23 31 32 38 40 40 41 39 41 43 43 35 33 31 28 16 26 31 31 29 28 25 21 17 16 13 11 9 11
10 8 7 5 25 34 36 32 39 41 40 40 40 43 45 42 35 36 34 27 21 29 29 27 28 29 25 20 19 15 14 12 10
13 8 12 8 13 20 33 38 38 38 39 40 39 39 41 43 43 40 38 32 28 19 26 20 20 33 29 24 20 18 17 14 12
25 21 24 16 14 15 14 22 32 39 37 39 38 41 37 38 39 42 40 35 33 25 23 19 16 31 30 26 24 20 21 18 15
27 27 22 20 21 15 12 22 31 39 39 42 43 41 39 38 39 41 41 41 36 34 29 26 19 26 29 28 27 24 22 22 20
19 26 24 20 13 12 29 18 19 37 41 41 41 40 40 37 37 40 41 42 42 40 36 32 31 26 31 30 28 25 25 24 23
10 6 16 21 20 22 38 43 29 38 39 40 41 41 40 40 39 38 41 39 42 41 38 37 36 33 29 30 29 28 26 26 26
15 18 7 12 19 13 6 26 14 30 39 41 40 41 41 40 39 37 35 37 37 44 39 42 38 36 33 30 31 30 29 28 28
14 15 19 21 13 17 13 21 31 15 36 41 43 39 40 39 37 38 38 36 37 40 42 38 42 41 38 35 32 33 33 32 32
13 9 8 7 19 15 8 10 21 17 25 29 40 42 39 41 40 39 40 37 36 36 41 38 37 40 38 38 38 35 35 33 33
16 15 12 13 13 18 12 3 19 22 26 10 14 28 38 41 41 41 38 38 37 36 35 38 38 36 36 36 38 38 37 36 35
15 16 13 16 20 24 25 29 16 15 14 24 24 25 34 38 42 39 39 41 39 39 35 36 38 36 37 37 37 37 40 38 39
17 23 24 25 24 21 19 24 26 18 19 20 29 30 38 38 40 40 41 40 41 37 39 37 33 36 36 37 38 37 38 41 42
18 20 26 24 21 19 20 20 28 15 31 26 29 26 29 34 41 43 41 40 38 39 36 33 35 34 35 34 36 38 40 39 43
12 16 22 22 22 23 25 27 24 16 11 20 18 23 21 30 35 38 36 39 38 36 36 34 33 33 30 34 35 38 39 41 43
9 15 18 19 21 21 22 27 28 26 29 31 30 20 22 34 34 39 36 36 36 34 34 33 31 30 31 31 32 34 39 42 43
7 13 15 15 14 14 20 24 27 28 28 31 29 25 21 26 34 33 34 34 36 35 35 33 31 30 30 30 30 30 32 39 41
4 16 17 15 9 9 14 23 25 28 29 30 28 25 21 24 31 35 32 34 34 36 37 37 34 33 31 28 28 36 34 36 41
9 9 10 14 14 14 17 20 24 26 30 28 27 24 21 18 25 28 31 30 29 34 34 36 40 36 32 32 32 31 36 34 38
9 5 10 14 13 16 15 17 22 28 31 30 27 23 22 22 19 24 26 26 28 19 29 35 37 38 38 30 36 35 33 37 41

GFSFLT1_925_spd_066.txt.gz
Wind_Speed
17 11 13 22 24 31 38 39 39 39 40 39 44 43 38 35 33 31 26 23 31 32 32 28 25 25 22 17 16 16 14 14 13
21 18 14 26 28 32 35 40 41 42 40 40 44 46 43 40 36 35 32 24 28 33 34 30 28 27 26 22 19 18 16 16 14
17 15 12 22 22 33 34 37 40 42 41 42 44 43 45 44 42 39 37 32 25 27 33 31 30 29 28 25 22 20 19 17 14
12 10 12 18 16 25 28 33 36 40 41 40 38 40 41 41 43 43 40 37 34 28 26 30 31 28 32 30 26 23 21 18 15
17 14 15 15 18 27 28 31 38 39 38 39 42 43 39 40 44 46 43 42 40 36 32 25 32 26 28 34 30 25 25 22 20
11 7 5 5 4 5 21 30 33 37 38 40 39 38 38 37 37 40 45 44 43 40 37 29 25 27 25 32 33 29 28 26 24
10 2 2 6 8 6 8 5 15 23 32 35 38 38 38 36 38 38 41 43 42 44 40 40 31 28 29 32 35 33 31 29 27
18 17 12 9 9 11 15 13 16 21 22 34 36 37 38 40 37 38 38 41 41 44 48 42 41 36 33 33 36 36 36 33 29
17 13 11 13 14 18 26 10 8 8 11 22 33 37 37 36 37 36 37 38 40 41 46 46 45 42 40 38 37 38 37 35 32
13 12 10 9 10 15 18 19 15 11 13 8 25 35 35 36 35 36 36 34 36 39 42 41 40 43 42 41 42 39 38 36 35
11 9 9 10 13 19 22 23 17 10 8 15 5 26 33 34 35 35 35 35 36 37 35 39 39 38 41 40 42 42 41 38 36
9 7 9 14 15 16 20 20 23 13 7 15 19 15 9 22 32 34 34 35 36 36 35 36 37 38 38 40 41 41 43 41 39
6 10 10 12 16 13 19 32 34 25 14 18 16 12 15 20 25 35 37 39 38 37 38 37 35 37 38 38 40 42 42 41 41
9 6 8 9 13 8 12 17 22 19 21 19 26 22 19 26 32 39 43 40 39 37 36 35 35 36 36 37 41 41 42 43 43
15 7 8 8 9 14 13 15 17 18 14 26 25 25 24 30 27 34 38 40 38 38 36 36 35 33 33 36 36 40 41 43 44
17 14 12 13 6 8 14 16 15 11 19 24 25 25 24 32 33 28 36 36 38 35 36 35 34 33 33 31 31 35 40 43 45
11 16 14 15 17 8 7 16 19 15 21 27 29 27 25 32 31 28 34 35 36 35 35 36 33 32 32 30 29 32 34 39 44
14 14 14 12 10 10 13 14 12 15 17 19 24 29 35 33 31 27 29 33 34 37 40 42 38 36 33 29 30 35 33 33 39
15 14 10 5 10 5 9 11 14 14 15 16 18 13 18 25 29 31 26 29 32 41 40 42 45 41 37 35 39 34 35 38 38
15 13 6 4 4 7 13 16 17 16 16 18 17 20 21 22 23 22 20 26 26 26 39 40 40 43 41 39 34 38 35 34 37

GFSFLT1_925_spd_069.txt.gz
Wind_Speed
17 18 16 16 22 31 34 36 36 36 37 38 43 41 37 33 31 31 26 21 21 26 26 25 23 21 20 17 15 16 14 14 13
16 18 17 19 20 31 34 36 38 39 38 38 42 45 40 36 32 34 32 26 20 23 28 28 26 24 23 21 17 16 16 15 15
11 12 9 11 16 28 34 37 40 41 43 43 48 47 44 41 37 36 35 32 28 21 24 29 28 25 23 22 21 18 17 17 15
9 15 13 10 13 28 32 35 37 38 37 38 36 40 43 41 41 38 37 35 33 29 20 27 28 28 25 24 24 23 20 19 17
12 15 10 6 4 15 14 21 26 32 35 34 35 40 39 41 42 42 40 39 37 33 30 25 24 25 26 26 29 28 25 23 21
15 12 10 10 9 8 5 1 18 24 27 29 34 37 37 35 37 39 42 41 40 37 34 32 28 24 27 30 29 31 30 27 24
16 15 13 11 9 6 9 1 8 12 26 28 30 28 31 35 37 41 42 42 42 41 39 36 34 30 26 30 31 28 31 30 27
19 17 17 13 9 6 11 12 6 10 19 31 33 31 31 34 36 38 41 41 43 44 43 41 38 35 33 29 29 31 31 33 32
15 16 16 13 11 13 14 16 15 11 8 19 31 32 34 34 32 34 37 38 41 41 44 45 43 41 38 37 35 32 32 34 35
12 11 12 13 12 14 14 14 16 16 13 11 16 33 34 34 35 35 38 40 39 40 41 41 42 42 43 43 41 39 36 35 36
12 11 10 11 15 14 15 17 20 20 15 7 9 15 33 34 34 35 33 31 35 38 37 38 41 40 40 40 43 45 43 40 38
12 12 13 14 18 21 17 17 23 20 17 9 6 5 3 21 27 27 30 31 33 35 33 35 37 38 39 39 39 40 44 43 41
15 23 22 18 21 20 18 18 20 18 16 15 17 13 8 8 6 23 28 30 32 34 34 35 33 35 38 40 40 39 40 39 42
20 21 26 23 21 19 18 18 19 12 15 16 18 17 14 11 11 11 16 26 33 33 34 33 33 33 35 38 39 39 39 40 42
20 21 22 21 19 20 21 18 13 15 16 20 17 17 17 16 12 15 14 19 29 34 33 32 32 31 32 32 34 37 39 40 43
19 22 22 22 20 18 18 16 19 13 16 19 19 17 16 16 17 19 16 16 22 26 31 30 29 28 30 28 28 32 36 40 42
14 24 22 19 18 19 19 16 14 15 19 22 24 14 8 15 18 24 19 19 17 27 29 29 29 27 28 26 26 29 29 33 40
16 23 28 22 16 15 16 16 17 17 16 20 23 26 20 20 26 24 25 24 18 28 36 38 32 34 32 28 30 32 32 35 39
20 22 25 23 22 15 10 13 18 17 19 21 23 20 17 18 16 20 21 22 25 25 37 34 42 42 36 33 38 31 32 35 38
24 24 22 19 14 14 12 11 14 17 18 21 25 19 13 17 18 10 14 20 19 22 23 40 42 44 47 44 38 33 35 30 34

GFSFLT1_925_spd_072.txt.gz
Wind_Speed
13 14 14 16 16 24 28 32 34 36 36 37 41 41 39 37 33 30 28 24 21 18 19 19 16 16 16 15 12 11 11 12 12
5 9 13 13 15 24 26 29 32 36 37 39 40 44 41 40 36 32 31 26 20 20 18 20 20 17 17 16 15 12 12 12 12
11 7 7 10 11 23 26 30 34 37 37 39 45 46 44 41 38 34 33 31 26 22 17 17 21 20 20 19 18 16 13 13 13
16 9 9 9 7 18 26 26 27 31 31 33 33 35 36 40 38 36 33 34 32 27 22 17 18 21 20 20 18 18 16 14 14
20 17 6 5 6 9 18 22 24 26 26 27 33 37 41 40 40 37 36 36 36 32 28 24 19 18 21 21 21 22 21 20 18
18 20 17 14 12 7 9 11 18 24 29 27 28 28 30 32 37 39 37 38 38 36 34 31 27 23 19 20 20 22 22 24 24
15 16 16 14 13 16 16 7 0 14 23 28 27 27 31 32 35 38 41 41 40 39 38 36 34 31 28 24 21 22 23 23 25
17 17 17 15 13 15 17 17 15 8 17 29 32 33 32 35 39 39 39 38 41 40 40 40 39 37 34 31 28 25 24 25 24
15 15 16 15 14 19 19 17 17 18 13 11 27 34 36 36 34 34 38 40 41 40 40 40 40 40 39 38 36 34 29 26 26
11 13 14 14 14 18 20 22 22 20 19 12 11 24 31 34 31 33 37 39 38 39 41 40 41 41 40 41 41 40 38 35 31
10 12 13 14 18 20 22 23 26 24 21 4 2 7 18 31 37 35 37 34 35 38 37 37 39 39 40 40 43 44 43 41 39
7 9 16 17 21 21 22 22 24 23 21 17 10 7 8 11 25 28 28 31 31 33 30 34 37 38 38 39 41 40 42 42 42
13 19 20 21 26 22 23 22 21 19 16 12 10 10 10 6 3 11 26 30 32 34 35 33 32 35 38 39 39 40 39 38 40
18 16 22 27 24 21 22 25 22 19 15 14 12 11 12 11 5 8 7 13 27 30 31 30 30 33 36 37 37 37 38 37 39
17 23 23 20 25 25 25 23 21 20 17 18 18 13 10 10 10 7 10 12 13 19 26 30 31 30 29 31 36 37 36 37 38
23 23 25 23 18 26 31 23 21 17 20 20 20 18 14 9 12 12 10 11 17 18 23 30 28 28 28 26 26 32 35 37 38
23 25 22 27 26 20 26 30 24 21 17 18 21 21 18 17 13 15 16 14 14 17 18 24 28 27 27 24 25 27 29 32 36
23 25 25 24 28 28 24 26 29 25 20 17 18 16 18 18 15 17 19 18 18 15 17 20 27 31 30 24 26 32 31 32 34
23 23 27 26 27 30 30 25 27 24 23 20 17 14 14 16 17 24 23 26 26 22 22 20 24 39 34 32 38 28 29 35 36
27 25 23 22 27 30 29 23 23 21 20 23 24 16 14 13 17 22 17 18 15 23 28 24 22 22 35 41 37 30 34 32 30

GFSFLT1_925_spd_075.txt.gz
Wind_Speed
9 19 19 20 24 28 27 27 27 27 27 29 27 26 32 33 28 22 21 20 16 14 13 12 12 13 11 11 8 8 8 8 8
13 6 17 20 23 27 28 28 28 29 29 29 29 31 29 32 32 29 23 21 21 16 15 12 14 14 13 12 11 10 9 9 9
16 8 10 16 21 25 27 28 29 28 29 30 36 33 30 28 27 29 27 25 23 20 18 17 13 15 15 13 13 13 12 9 10
17 16 1 8 14 19 22 23 24 26 26 26 27 28 30 29 27 27 25 24 25 24 21 19 16 15 15 15 15 15 15 14 11
17 18 17 13 7 6 16 18 19 23 24 24 26 28 27 31 28 27 25 28 27 27 27 23 21 16 14 15 15 16 16 17 14
16 18 19 17 20 18 13 4 15 17 19 22 21 22 23 28 30 27 26 27 28 28 28 27 22 21 18 16 16 17 19 18 17
16 16 18 15 16 20 21 17 13 3 11 17 19 22 22 24 35 35 32 28 27 26 29 30 27 26 24 22 18 18 17 17 18
15 17 18 17 16 19 21 22 20 13 8 6 16 21 23 26 28 34 38 33 31 30 26 28 30 28 27 26 23 21 20 19 18
14 15 16 17 19 21 23 22 21 20 16 12 11 18 24 24 23 24 27 30 31 30 30 28 28 29 29 29 29 29 30 26 19
13 14 15 15 17 20 22 23 22 23 24 17 11 13 20 24 23 23 25 26 26 27 29 28 27 28 27 31 34 36 37 36 28
12 13 14 16 19 21 22 23 23 26 25 22 14 6 6 14 20 24 22 22 24 26 26 26 28 26 28 31 34 39 41 41 38
13 14 16 16 18 20 20 21 23 23 23 21 20 16 12 9 9 20 22 23 23 24 22 23 25 25 25 28 35 37 38 37 33
17 19 18 20 21 19 19 20 21 21 20 19 18 20 21 18 13 9 12 19 22 22 23 24 23 24 25 27 31 35 36 35 30
15 17 20 23 23 19 19 20 20 20 20 18 18 19 20 19 17 12 9 11 15 21 23 23 24 24 24 26 29 32 34 34 33
19 18 19 20 21 25 23 20 19 19 19 20 20 21 20 17 18 17 12 12 15 13 17 24 24 24 24 25 26 31 34 34 35
21 22 20 20 20 24 26 23 20 20 19 19 19 20 23 21 22 19 16 15 13 12 17 19 19 21 23 26 24 26 30 36 34
21 23 24 23 22 23 27 24 24 22 21 18 16 18 19 22 21 19 19 16 16 14 17 18 19 19 24 26 25 26 25 24 32
19 24 25 23 22 23 25 27 26 24 22 17 15 17 19 19 18 19 20 18 19 18 17 18 19 17 19 23 27 29 26 24 22
14 20 22 21 21 21 20 25 26 23 21 15 13 15 17 18 20 19 19 22 23 21 21 20 23 24 28 31 35 32 28 27 31
15 14 15 16 17 20 20 19 19 15 10 15 14 16 16 18 20 21 22 22 21 24 23 19 25 20 23 29 30 33 31 32 27

GFSFLT1_925_spd_078.txt.gz
Wind_Speed
4 20 18 19 22 25 26 24 25 24 24 24 25 25 23 21 19 18 17 15 13 12 11 10 8 11 10 9 9 7 7 7 6
13 5 18 18 21 24 25 26 26 26 24 24 24 26 23 23 21 21 17 16 13 14 12 9 10 10 11 11 11 10 9 8 8
15 2 6 14 18 21 23 25 26 25 24 24 24 24 24 24 23 21 20 18 17 15 14 13 10 12 12 12 12 11 10 8 9
15 18 12 10 7 17 19 20 22 24 24 23 21 22 23 24 24 24 21 20 19 18 17 16 15 14 15 13 13 13 13 12 8
14 16 15 15 24 16 12 17 17 20 20 20 20 19 20 24 23 21 21 20 20 18 18 18 16 16 13 14 15 15 15 13 11
13 16 18 16 20 21 22 25 1 11 13 15 16 16 18 20 21 23 24 22 20 20 19 20 19 18 16 15 17 17 17 16 15
13 14 14 14 16 19 22 23 21 21 10 6 12 14 16 18 21 24 27 26 23 21 21 20 21 22 20 18 17 18 18 18 17
13 14 15 15 14 17 19 21 19 17 16 15 9 10 15 17 18 19 21 24 26 25 22 22 22 23 23 22 21 21 20 19 19
13 14 14 14 16 18 19 20 19 20 20 17 13 11 14 15 16 17 18 21 25 24 25 24 24 24 25 25 25 26 25 23 21
13 13 13 14 14 17 18 18 19 20 22 20 17 16 9 13 16 16 17 19 20 21 24 24 25 26 26 27 28 29 31 30 29
11 11 12 13 16 17 17 17 18 17 17 18 19 22 18 18 12 14 17 19 20 21 21 23 25 26 27 28 29 32 33 35 34
9 11 12 13 15 15 15 17 18 19 17 17 15 17 18 18 15 17 13 18 20 20 20 21 23 24 25 27 29 31 33 34 29
9 11 12 14 15 15 15 17 19 19 17 17 17 19 19 19 17 16 15 15 19 22 22 21 21 23 24 26 28 28 31 32 28
9 10 12 14 14 14 14 16 18 18 18 17 17 18 19 19 20 21 18 15 19 20 21 22 22 23 24 25 26 27 30 32 29
11 11 12 12 14 15 15 15 17 17 17 18 19 18 19 20 19 18 17 16 17 18 17 14 17 21 23 25 26 29 29 30 32
11 13 14 14 14 16 17 16 16 19 20 20 21 20 19 19 19 18 17 17 16 17 16 18 17 16 19 23 26 27 28 30 32
10 11 15 16 15 15 16 17 18 19 22 22 21 21 21 20 20 19 17 16 17 15 15 13 18 16 15 21 26 26 24 22 26
10 11 13 14 13 12 13 16 18 19 21 21 22 23 20 21 21 18 19 18 16 18 20 17 17 23 19 18 24 25 18 16 18
11 12 14 14 14 14 15 17 18 19 19 17 18 18 21 21 20 21 20 21 23 21 22 23 23 26 28 26 34 36 36 36 33
7 10 11 11 12 14 16 17 18 19 20 18 16 18 22 24 24 22 23 23 23 25 26 24 27 24 22 24 31 30 30 33 33

GFSFLT1_925_spd_081.txt.gz
Wind_Speed
11 22 16 16 23 26 24 28 28 24 24 22 22 22 20 18 16 14 14 12 11 10 11 7 14 7 8 9 9 8 8 7 7
5 14 20 16 25 24 30 25 28 25 23 23 23 23 22 21 19 18 15 13 13 12 7 8 11 9 9 10 10 9 8 9 9
12 9 19 13 8 30 24 26 27 26 25 23 23 22 21 21 20 19 17 14 14 11 10 10 5 10 11 10 10 10 10 11 10
11 15 16 14 16 16 8 33 30 28 26 25 22 21 21 21 21 20 18 17 16 16 14 12 10 8 12 10 12 11 12 13 5
11 14 14 15 20 25 27 25 12 28 26 25 23 20 19 20 19 18 19 19 18 16 17 16 16 15 13 14 14 14 14 15 13
12 15 18 18 19 25 22 23 23 21 14 6 19 18 18 18 19 20 21 21 19 19 18 18 17 17 17 16 17 16 16 16 17
13 14 15 15 16 23 18 22 23 21 20 19 17 5 19 17 17 20 21 22 20 20 20 19 20 20 20 19 18 17 18 19 18
14 14 15 14 11 14 19 21 20 23 20 19 19 18 17 8 14 16 17 18 21 22 21 22 22 21 22 23 21 21 22 20 21
13 13 13 14 14 15 16 17 16 18 20 19 16 18 17 16 12 6 14 15 17 19 22 22 23 24 24 25 26 26 25 23 22
12 12 12 12 12 14 15 15 15 16 13 14 17 16 16 16 15 11 12 10 13 17 19 21 24 26 26 27 28 29 28 30 29
10 9 10 10 11 11 12 13 14 12 12 7 14 16 18 20 18 15 15 14 14 17 16 19 23 25 27 27 29 31 32 32 33
8 7 9 9 9 8 8 11 12 12 10 11 12 13 13 15 16 15 15 16 18 15 17 20 21 21 25 28 29 31 31 34 30
6 7 8 8 9 8 9 11 12 12 12 12 13 14 13 13 13 13 14 15 17 18 18 17 19 21 26 28 30 28 30 31 28
4 5 7 8 8 8 9 10 12 11 12 12 13 14 13 13 13 13 12 14 14 18 18 18 15 18 22 27 28 28 30 29 28
2 4 5 7 8 9 10 11 12 13 13 14 16 15 15 14 14 14 14 14 15 14 14 17 15 16 17 25 30 30 28 29 30
4 5 7 7 9 8 8 10 13 15 15 17 18 18 18 17 16 15 15 16 16 17 14 11 13 14 17 21 25 26 28 29 32
4 7 8 9 9 9 9 10 12 14 16 18 21 21 20 20 18 17 17 16 16 17 16 16 16 14 17 17 22 18 12 9 9
7 6 7 8 9 10 11 13 14 15 16 17 19 21 22 21 20 20 19 17 18 17 17 16 16 17 20 21 22 21 27 31 30
4 6 6 7 8 10 12 13 14 15 17 17 18 20 19 22 23 21 22 22 23 21 22 23 22 23 22 23 25 30 29 29 27
2 5 6 7 8 9 11 12 13 14 16 16 17 18 20 21 23 25 25 25 24 25 26 25 24 24 22 22 24 26 26 26 23

GFSFLT1_925_spd_084.txt.gz
Wind_Speed
18 13 8 18 24 18 21 33 32 31 29 26 24 23 21 19 16 10 9 9 10 8 8 7 13 11 11 11 11 9 8 6 6
11 11 27 21 15 29 25 30 33 32 32 27 25 24 22 19 18 17 12 13 14 10 10 11 5 7 10 7 9 9 10 9 10
12 15 13 13 15 21 30 24 33 32 34 30 28 25 24 22 21 21 20 12 11 11 6 16 5 7 11 10 11 11 10 11 9
13 10 11 9 15 28 21 5 13 27 33 30 26 26 25 24 24 22 19 16 13 17 11 10 13 12 16 14 12 13 13 10 6
14 11 11 11 13 27 18 26 22 12 6 29 27 27 27 27 23 23 22 21 19 18 17 15 13 11 12 13 14 12 14 13 11
15 13 12 13 18 20 16 18 30 22 16 16 3 23 27 24 25 23 23 24 22 20 19 17 16 17 17 18 17 16 14 15 14
15 15 14 14 14 16 12 11 25 18 17 21 26 12 16 23 21 20 20 18 21 22 21 19 19 19 19 21 19 19 18 17 17
17 17 17 16 16 18 18 20 25 23 21 21 22 22 22 18 13 12 13 16 20 19 20 21 20 20 21 19 21 19 20 20 20
15 16 17 15 16 19 19 20 19 19 17 24 22 24 22 18 15 14 3 8 12 15 16 19 19 21 21 21 22 23 24 26 23
14 14 14 15 14 18 18 17 14 14 18 19 20 23 18 15 13 12 12 12 5 8 15 18 19 20 22 23 24 27 26 24 26
12 12 13 12 15 15 16 16 14 11 9 9 16 19 18 19 16 12 11 9 10 10 8 12 18 22 21 25 25 25 27 30 30
10 10 12 12 11 13 13 13 13 12 12 14 15 15 13 14 19 17 14 12 12 14 13 12 13 17 21 22 24 25 28 25 30
9 10 10 8 8 10 11 10 11 10 11 13 14 15 15 13 13 12 11 12 12 11 14 15 16 16 19 24 28 24 24 27 28
8 6 8 4 6 7 8 9 10 10 10 11 12 13 14 14 12 12 11 11 14 15 13 13 15 17 19 20 24 24 24 25 28
4 5 5 5 5 6 6 9 10 9 11 13 14 14 14 15 16 13 13 13 14 16 16 15 15 14 15 14 15 17 19 24 27
6 7 6 7 6 7 11 11 10 10 12 13 14 15 18 17 15 17 16 14 19 18 16 15 13 11 9 12 11 15 12 5 11
7 8 7 5 5 6 7 10 10 11 13 16 17 18 17 18 22 18 19 18 17 13 15 15 14 13 14 16 17 15 15 18 21
7 5 5 3 3 3 5 8 10 11 13 15 16 18 20 20 18 22 23 18 16 15 16 17 18 15 17 18 19 18 22 25 26
5 5 4 4 2 4 5 6 7 10 12 13 15 16 17 19 22 22 21 22 24 23 24 22 21 24 25 26 25 23 20 21 23
4 4 4 4 4 5 5 7 7 9 11 13 14 15 16 18 19 20 22 21 21 23 26 27 28 28 27 26 27 24 21 26 26

GFSFLT1_925_spd_090.txt.gz
Wind_Speed
7 13 11 8 11 8 13 22 32 31 35 32 27 27 23 17 15 12 11 15 17 17 16 15 15 15 14 11 9 9 10 9 7
6 10 8 9 14 8 3 11 22 33 36 34 30 30 27 21 18 17 13 15 12 16 17 14 19 17 16 13 12 12 10 9 7
5 3 2 2 12 11 4 2 14 24 33 35 33 30 31 27 23 21 19 16 14 16 18 15 15 13 17 14 15 13 12 11 9
6 5 4 6 8 12 12 10 5 11 20 20 25 29 30 29 27 25 22 20 16 16 20 19 18 14 15 16 15 15 15 12 10
6 5 6 5 18 19 18 17 12 13 3 20 14 21 26 29 29 26 25 26 24 17 19 17 18 15 16 18 16 16 17 16 13
5 3 5 6 9 12 14 16 20 11 2 8 4 10 19 23 24 25 26 25 25 23 19 20 18 17 15 17 20 17 17 17 16
7 6 5 5 9 14 15 17 18 19 12 14 9 9 1 7 12 24 26 26 23 24 23 20 19 19 19 17 17 17 19 18 18
9 8 7 6 8 10 14 18 19 18 16 17 13 11 2 6 8 3 17 23 21 19 21 23 22 20 20 20 19 20 20 21 21
11 10 10 9 10 10 12 16 19 22 20 16 13 11 8 5 3 5 6 4 10 13 19 20 20 19 20 19 20 20 18 21 22
12 9 7 7 9 11 12 16 17 18 16 12 12 11 9 7 2 8 11 8 7 7 7 7 15 19 18 18 19 17 18 19 22
13 13 9 8 15 19 15 20 22 23 19 18 17 16 16 14 10 3 7 8 11 11 11 9 7 7 9 13 12 14 16 19 22
9 7 13 20 25 27 28 26 23 24 21 21 22 20 19 15 13 15 8 12 9 10 10 11 13 12 9 6 8 10 11 16 18
14 20 22 23 24 25 26 22 21 21 20 20 19 16 15 14 16 13 9 8 7 9 12 9 10 9 8 8 8 8 9 12 14
20 23 23 25 26 26 22 20 18 22 19 18 14 11 11 12 12 11 11 8 9 12 16 15 15 8 10 13 14 15 13 11 10
19 22 25 25 25 23 20 17 16 18 17 12 10 11 12 12 12 14 15 17 14 16 17 16 19 20 14 15 15 17 15 15 13
18 23 24 23 24 20 16 13 13 17 13 10 9 10 12 13 12 15 16 18 19 20 21 21 21 22 21 21 19 17 18 19 17
17 23 25 20 19 18 14 10 10 11 10 10 11 13 13 14 16 17 16 16 16 18 21 22 22 22 24 26 23 25 26 23 20
20 21 19 18 17 14 13 9 8 7 9 9 12 13 15 15 16 17 18 17 16 16 15 16 17 20 21 21 23 27 26 24 23
21 18 16 16 16 14 14 9 7 6 9 9 10 13 15 15 15 15 16 18 19 16 18 17 15 16 18 18 19 24 24 21 21
21 19 17 17 15 15 11 9 6 4 6 9 10 11 12 15 16 17 17 18 19 22 23 21 22 24 23 21 22 24 27 27 24

GFSFLT1_925_spd_093.txt.gz
Wind_Speed
6 7 12 14 2 12 19 21 28 32 35 33 29 25 23 19 14 14 13 12 11 18 17 15 13 12 12 10 9 9 11 9 7
10 8 9 15 13 17 15 18 23 31 34 34 32 27 24 21 17 15 14 12 12 14 17 17 16 15 15 12 11 10 9 10 9
7 8 8 9 11 11 10 8 18 24 25 23 27 25 25 24 21 17 16 13 14 13 12 16 16 16 18 15 13 11 11 11 9
7 7 5 9 12 13 11 4 6 17 20 20 22 24 23 24 23 21 19 18 15 14 14 15 16 13 12 14 14 13 13 12 11
7 7 4 7 19 21 16 10 5 12 14 14 15 17 22 22 22 23 22 21 20 18 17 16 18 16 14 15 16 14 14 14 14
7 6 6 8 13 17 22 24 24 14 7 9 6 3 8 18 18 19 23 24 23 21 21 17 18 18 19 14 17 17 16 16 15
7 7 6 6 7 11 12 15 17 18 13 12 9 1 11 0 3 10 15 19 22 21 21 22 20 20 20 18 16 16 18 18 18
8 8 7 5 6 8 12 12 13 17 16 15 12 9 2 6 7 8 7 8 13 18 17 19 21 21 22 20 19 18 19 18 18
10 8 8 6 6 9 12 12 15 14 14 11 9 11 7 2 3 8 13 15 10 3 7 15 19 19 20 22 21 18 18 16 17
12 11 9 8 7 8 12 14 18 20 17 13 11 11 7 4 3 2 8 12 12 12 13 13 8 7 14 19 22 19 19 17 17
12 12 10 9 12 16 19 21 24 25 24 23 21 18 14 10 6 3 5 7 10 12 12 14 15 12 9 9 7 9 17 19 18
14 11 16 18 21 22 23 25 25 26 26 25 23 21 18 16 14 13 10 8 5 9 11 7 10 9 8 8 9 11 8 7 10
15 19 21 24 26 28 27 22 22 23 22 21 20 16 15 14 13 12 10 8 4 7 8 8 5 8 10 12 17 18 18 11 9
21 22 25 29 28 27 22 19 17 21 18 17 13 10 10 10 11 11 11 10 10 9 11 17 22 19 17 16 16 14 16 19 17
20 21 20 27 27 23 19 16 14 16 15 10 7 7 9 10 11 12 12 12 13 12 12 14 16 14 15 15 16 13 13 14 13
19 21 21 25 28 23 17 15 11 13 10 7 8 8 10 11 10 11 12 13 13 14 14 15 15 16 16 16 15 17 16 15 13
15 18 22 23 22 21 17 14 12 12 9 7 10 13 13 13 14 13 12 12 13 13 15 15 15 15 15 15 16 19 21 21 18
17 22 24 22 22 19 17 13 13 11 11 11 12 13 13 12 13 14 14 14 14 14 15 14 14 14 13 15 17 20 19 20 21
21 22 21 19 19 20 16 13 12 11 10 11 13 13 12 12 12 13 14 14 12 13 11 10 12 13 13 11 14 17 17 17 20
20 18 17 15 14 14 13 11 11 10 10 8 11 13 12 11 11 12 14 15 17 17 15 14 17 17 16 18 20 22 22 22 20

GFSFLT1_925_spd_096.txt.gz
Wind_Speed
12 9 13 14 17 18 19 16 22 29 34 34 31 27 22 18 15 10 8 9 10 13 15 11 9 8 8 7 7 5 6 6 5
15 11 12 16 21 24 14 16 23 29 33 34 31 27 22 18 17 15 12 9 9 9 12 13 11 9 9 10 9 8 7 7 7
13 11 10 10 13 23 25 26 28 28 30 33 33 27 22 19 17 15 12 11 10 10 9 11 13 11 12 12 10 9 8 9 7
12 13 13 12 14 17 21 11 15 23 25 23 27 27 23 20 19 16 14 14 12 10 8 8 9 10 8 10 13 12 11 10 9
7 4 7 10 17 19 20 19 6 10 17 24 23 22 22 20 17 18 16 15 14 14 13 11 11 10 10 9 8 9 10 11 11
7 7 7 8 13 18 19 21 12 6 7 6 2 10 16 13 12 13 15 16 17 17 16 14 13 13 13 12 9 11 12 13 12
7 5 6 8 8 9 10 15 21 20 16 10 7 8 8 12 7 5 6 8 10 12 13 12 13 15 14 14 13 12 12 16 15
9 6 5 6 7 11 14 17 19 21 19 19 21 16 10 15 17 15 8 3 1 2 4 6 9 13 15 15 15 16 15 14 15
10 9 7 7 7 12 13 16 15 17 18 18 17 14 11 11 10 11 13 15 14 10 6 6 6 5 8 13 15 17 17 16 16
9 9 8 8 8 12 14 15 17 17 17 14 12 13 12 9 7 7 7 8 8 10 11 11 13 13 12 10 8 14 16 17 16
11 10 10 9 14 18 22 24 26 26 25 23 21 18 16 13 10 7 4 3 3 6 6 8 11 12 11 11 11 8 5 11 11
7 11 15 18 22 24 27 27 27 29 27 24 22 19 19 17 14 12 8 5 1 1 4 3 5 10 10 15 17 17 13 10 7
12 14 18 22 24 26 30 24 27 28 25 23 20 16 15 13 13 12 12 9 9 9 8 6 9 16 16 13 15 16 18 16 13
14 16 20 22 25 24 21 21 22 23 20 19 15 13 12 12 12 14 14 14 16 15 17 23 19 17 15 15 14 10 12 13 17
15 18 19 24 26 22 17 15 17 18 17 12 10 10 10 10 11 12 12 13 16 15 16 18 16 14 14 14 12 12 14 15 14
11 13 18 22 25 20 16 13 10 13 12 9 9 10 12 12 12 11 11 11 12 13 13 14 13 12 11 9 13 14 13 12 11
13 16 18 21 21 19 16 12 12 13 11 10 10 12 14 13 12 11 12 12 11 12 12 11 11 11 11 10 13 16 17 17 16
12 16 19 19 18 16 13 11 10 11 12 11 15 14 13 13 13 12 13 13 13 13 14 12 11 12 10 11 14 17 15 17 18
17 21 20 18 18 19 17 13 11 11 10 10 13 14 13 13 14 14 13 13 15 15 13 11 13 12 12 10 10 9 11 11 9
21 21 18 15 13 11 13 13 12 11 11 11 10 12 12 13 14 15 15 15 15 16 11 14 14 12 13 14 13 13 14 14 13

GFSFLT1_925_spd_099.txt.gz
Wind_Speed
18 19 15 16 22 21 24 24 23 21 21 23 25 21 19 18 15 9 7 7 7 6 8 7 7 6 7 6 5 5 5 5 4
18 18 17 13 22 24 24 23 26 24 20 18 19 20 19 18 16 13 9 7 6 5 5 9 8 6 6 6 6 6 6 7 7
18 18 17 15 19 23 21 16 14 13 17 20 19 19 19 18 16 14 12 9 7 5 5 6 9 8 8 9 9 7 8 7 8
17 17 17 17 21 20 27 15 16 10 14 17 19 20 21 20 17 15 14 11 8 6 4 3 4 5 6 6 9 10 10 9 9
13 15 15 13 21 20 22 25 12 6 10 16 18 17 23 22 19 17 14 14 12 9 7 7 6 5 6 7 6 7 9 9 8
11 12 12 12 16 20 21 20 24 15 9 9 9 11 15 19 17 16 14 14 13 13 11 10 8 9 7 7 7 7 10 9 10
10 10 13 12 11 16 19 22 24 21 15 16 13 8 4 10 16 16 13 14 15 13 11 10 8 8 8 7 8 8 8 9 10
9 8 9 11 11 13 15 17 18 15 19 17 10 2 1 3 6 11 10 9 9 9 8 7 6 6 7 8 8 7 8 10 10
9 7 7 9 9 13 14 16 18 18 21 21 19 19 18 16 12 13 11 10 12 11 10 8 5 4 2 3 4 10 13 13 12
9 8 7 7 7 10 11 15 19 19 22 21 21 21 20 19 17 14 14 12 12 14 12 12 10 10 9 5 1 8 11 12 13
10 9 7 7 12 14 17 21 24 25 26 25 24 20 17 14 15 13 12 9 6 6 8 9 10 10 10 10 11 3 1 3 2
10 9 11 14 16 19 20 22 24 26 24 25 22 18 16 12 10 10 8 7 6 5 5 6 10 14 13 15 15 11 9 8 8
14 16 15 18 18 23 26 23 26 28 24 21 15 15 15 13 11 9 9 7 8 6 10 17 17 18 17 16 17 16 16 12 12
16 18 20 21 20 18 18 19 19 18 16 15 12 12 13 13 12 12 10 10 10 13 19 19 18 19 19 17 14 12 12 10 13
16 18 18 17 20 17 12 12 14 15 14 11 11 9 12 12 12 10 12 15 16 20 19 18 14 13 15 15 12 13 12 13 11
14 17 16 14 15 15 12 9 8 10 8 8 10 9 10 10 11 12 12 12 12 12 11 10 10 9 8 7 7 8 8 7 5
13 14 14 14 13 13 11 8 8 9 8 7 8 9 9 9 9 10 9 9 9 9 8 6 6 6 6 6 7 9 10 10 9
7 8 10 10 10 10 9 8 8 7 8 9 9 9 8 8 9 9 11 11 9 10 10 6 6 7 6 5 7 8 9 9 8
9 6 7 7 7 7 7 7 7 6 7 7 9 10 8 7 8 9 10 12 15 15 14 11 12 10 8 7 6 4 4 4 5
18 16 13 10 10 8 8 7 7 6 8 8 7 8 8 7 8 9 10 10 10 12 11 11 12 13 11 10 8 7 7 6 9

GFSFLT1_925_spd_105.txt.gz
Wind_Speed
28 24 18 17 31 21 21 29 20 21 21 20 19 17 14 11 9 9 9 9 7 11 11 6 12 8 6 5 5 7 6 8 7
29 25 21 12 22 30 23 28 24 21 21 20 19 18 15 13 11 11 7 5 3 13 5 6 8 7 7 7 7 7 6 9 6
26 24 23 20 9 16 25 22 23 23 23 20 18 17 16 14 13 10 9 7 10 6 2 1 11 7 7 7 7 7 7 10 10
24 19 20 6 6 15 24 22 25 28 27 22 20 17 16 14 13 11 9 8 8 5 3 4 1 4 6 6 8 8 8 10 3
18 16 19 14 14 13 20 21 19 19 9 24 22 21 16 15 12 10 12 10 8 7 4 4 5 5 6 7 7 8 9 10 8
16 17 20 20 24 14 8 19 16 21 14 13 11 12 14 13 16 17 13 12 11 11 9 8 8 8 7 8 8 7 7 9 8
17 18 16 18 15 22 14 24 22 18 21 20 14 6 7 11 13 16 16 13 12 11 11 11 10 10 9 9 10 9 9 9 9
7 8 13 14 13 19 25 24 25 21 18 17 24 17 11 12 11 13 13 10 11 12 13 13 13 12 11 9 10 10 11 11 11
9 10 10 10 11 16 20 23 22 19 18 17 18 20 15 15 14 9 11 11 11 12 12 13 13 13 12 11 9 8 13 14 10
8 10 11 14 12 14 15 18 19 21 20 19 18 17 15 13 12 11 8 6 8 8 7 8 8 7 5 3 4 12 14 16 15
8 6 7 9 10 11 9 9 16 19 21 21 18 16 15 13 12 11 10 14 12 9 10 5 6 7 6 4 3 1 4 7 6
9 9 9 9 8 8 8 7 5 12 15 14 14 14 14 12 10 11 13 11 9 9 9 6 7 9 6 4 3 1 2 5 5
10 10 10 11 12 12 11 10 11 14 14 14 15 16 14 12 9 11 11 12 10 6 6 9 14 9 4 4 4 4 3 3 3
13 14 14 15 18 20 16 15 17 21 21 18 16 13 13 13 11 9 8 7 5 10 11 16 14 8 6 5 5 4 5 4 5
13 17 18 18 21 21 20 21 25 21 21 16 16 15 13 12 10 7 7 8 7 8 12 10 10 9 7 6 5 5 6 8 7
14 19 19 19 19 20 19 19 18 21 15 14 14 12 10 10 9 8 7 8 9 9 9 9 9 9 8 7 4 2 2 3 1
14 16 17 17 17 17 16 16 15 16 13 11 11 8 7 7 7 7 6 7 8 8 7 7 7 6 5 5 3 2 4 4 4
11 9 11 11 12 14 15 13 11 11 13 10 8 6 5 4 6 5 5 9 7 6 3 4 7 3 0 2 6 3 1 1 1
13 11 10 10 10 10 10 11 10 9 10 9 9 6 6 5 7 7 6 5 4 3 3 2 1 4 4 3 3 3 2 4 4
14 9 8 6 4 6 9 10 8 5 5 7 5 5 5 3 2 5 6 6 5 4 4 5 3 4 4 4 2 2 6 9 9

GFSFLT1_925_spd_108.txt.gz
Wind_Speed
17 17 16 19 17 16 12 24 16 28 27 25 23 19 15 11 9 9 7 10 1 3 4 11 10 12 7 5 5 5 4 5 6
24 25 24 22 15 18 14 19 28 12 28 24 23 19 17 13 9 6 2 6 14 12 23 14 13 12 9 8 5 6 5 7 7
25 24 25 17 17 24 34 32 28 24 18 26 24 22 22 16 13 9 7 5 3 2 11 7 11 5 6 6 7 6 7 8 8
23 25 25 19 12 14 18 27 31 27 30 25 26 23 24 22 19 17 11 8 8 7 8 3 2 3 5 4 5 8 8 10 5
22 23 20 16 15 19 9 7 8 33 29 27 24 23 22 19 19 18 18 13 7 6 7 5 6 5 6 7 8 9 8 8 7
19 17 14 14 16 6 13 15 24 24 14 25 19 16 19 16 15 17 12 18 13 13 9 6 7 9 8 9 9 9 7 8 7
17 14 14 14 13 16 11 17 29 36 30 20 27 29 24 23 16 14 15 11 13 15 16 14 12 10 10 9 9 8 9 8 9
18 15 16 13 13 13 20 24 27 14 16 13 16 25 26 21 13 13 11 12 13 12 10 13 12 10 9 9 7 11 11 11 9
13 13 14 13 13 14 22 24 21 22 19 13 9 10 10 12 12 16 12 10 10 10 9 8 8 10 10 7 8 9 7 10 9
9 10 7 9 10 12 18 22 21 22 20 17 16 12 12 12 13 15 14 11 9 8 7 8 6 5 4 7 8 9 9 11 12
11 13 12 12 11 11 8 14 17 17 18 18 16 15 13 11 11 10 6 6 4 7 9 7 6 10 9 1 3 5 8 7 7
12 13 14 14 15 12 12 12 8 11 15 17 17 14 13 10 8 7 6 6 6 6 10 8 11 9 6 1 5 5 3 0 4
12 15 15 12 12 12 13 11 15 17 15 12 8 8 12 12 12 10 8 8 8 7 10 15 12 8 2 2 1 1 3 3 8
18 14 12 14 17 18 15 13 15 19 16 17 12 15 15 13 10 9 8 6 6 5 9 12 11 6 2 2 2 4 0 4 9
15 13 13 14 18 19 19 18 22 23 21 17 16 14 12 14 12 13 11 10 10 11 13 12 9 7 6 3 4 3 4 2 3
13 13 14 15 19 20 22 20 21 24 17 17 18 18 17 14 14 14 11 10 8 9 12 10 10 11 10 7 2 3 5 4 4
13 13 13 14 16 19 18 18 17 15 14 14 14 15 14 14 11 14 10 12 6 9 5 5 8 12 12 10 6 3 0 2 5
11 9 10 15 16 19 16 15 14 12 10 9 11 9 9 11 10 8 10 14 12 8 8 8 7 11 9 10 10 5 3 3 3
15 14 11 14 12 13 12 12 12 11 10 8 6 4 1 5 8 7 7 6 6 7 6 4 4 5 3 3 2 3 4 3 1
24 19 13 10 11 11 9 9 9 8 6 7 8 6 6 3 6 9 9 7 4 1 3 3 2 3 5 5 4 4 4 5 5

GFSFLT1_925_spd_111.txt.gz
Wind_Speed
16 13 10 10 13 14 23 31 33 32 34 28 23 18 15 13 12 15 8 16 12 10 14 7 6 9 9 10 6 7 3 5 5
18 15 13 11 15 15 21 26 33 33 35 32 28 23 19 17 14 12 17 16 10 16 12 6 8 9 10 8 6 5 4 3 3
17 17 15 13 14 22 28 28 24 33 34 34 32 27 24 20 17 15 13 15 14 10 10 13 11 12 13 12 10 7 7 5 3
16 16 17 14 11 26 26 21 19 27 32 28 27 27 25 22 20 16 14 11 9 8 14 10 15 12 9 11 8 9 8 6 7
13 15 16 13 17 23 26 19 17 26 30 27 29 27 29 26 22 20 20 19 15 14 18 11 14 17 13 11 9 8 8 6 5
15 20 17 14 16 23 22 22 18 15 16 19 29 31 31 29 30 26 25 23 21 19 18 14 12 10 10 11 10 9 9 6 6
21 18 18 16 13 17 20 23 22 19 15 9 14 33 30 31 28 27 25 25 22 22 23 16 12 12 11 11 9 9 9 7 5
15 16 15 16 16 14 20 25 28 20 17 29 22 28 28 29 29 16 11 14 17 18 21 19 13 11 10 8 9 10 8 11 8
7 8 9 9 15 23 24 27 32 34 33 31 20 20 24 19 21 23 17 16 9 14 11 13 12 11 8 7 5 6 4 5 10
19 14 13 8 9 16 23 28 35 26 30 33 28 19 21 18 15 15 15 16 17 15 17 12 12 10 9 9 7 9 8 6 9
13 15 15 11 13 17 13 20 25 26 29 34 29 21 17 17 17 15 11 10 10 13 15 18 19 14 7 4 2 6 6 6 5
12 9 12 15 18 16 14 10 17 24 26 29 25 22 20 15 12 10 9 8 7 7 11 15 14 11 10 5 1 2 2 3 7
13 15 17 18 16 16 16 15 12 17 16 17 14 16 15 12 11 12 10 10 10 12 15 17 15 13 8 5 2 2 4 4 9
13 13 16 15 18 19 16 13 18 20 18 16 14 16 17 18 16 14 13 12 12 13 16 15 12 9 6 4 5 6 7 11 12
14 14 17 17 16 18 18 18 20 22 21 12 13 18 18 16 16 15 13 13 12 12 13 13 11 10 10 7 7 8 8 9 12
13 13 16 17 15 17 22 21 23 25 20 20 19 22 19 15 15 15 13 12 11 11 10 10 10 12 10 10 8 7 9 9 9
10 11 16 15 17 16 17 20 19 19 18 18 18 19 19 19 18 16 14 14 12 13 11 7 5 8 8 10 8 6 5 5 5
10 14 14 14 13 15 13 13 15 13 13 12 15 13 14 13 13 14 16 16 13 11 13 9 8 7 16 15 9 3 3 2 1
19 16 16 15 14 14 13 12 12 11 10 10 10 10 8 8 8 9 9 9 9 6 8 8 10 9 7 7 5 1 3 3 2
4 9 14 18 17 12 9 8 10 7 8 7 9 8 7 5 5 12 10 8 9 9 6 5 2 1 4 5 5 4 4 2 2

GFSFLT1_925_spd_114.txt.gz
Wind_Speed
12 10 9 11 19 27 29 30 33 34 35 30 28 26 22 18 14 14 11 14 15 15 15 11 10 12 10 9 7 6 5 4 2
15 15 12 12 16 24 28 28 32 35 36 33 29 28 24 21 16 14 12 16 10 14 13 13 10 14 12 9 9 6 7 5 3
13 13 13 10 17 23 31 33 36 38 37 36 32 28 27 25 21 16 13 14 15 16 17 13 11 14 12 13 11 10 9 7 5
15 14 15 12 17 25 31 37 34 37 36 35 32 29 27 25 22 20 18 16 14 13 12 15 14 12 11 9 8 12 10 10 8
15 18 17 13 17 21 27 30 36 36 36 39 36 34 32 28 26 25 23 19 16 13 11 11 10 14 12 11 9 11 13 12 10
9 14 16 15 14 17 23 27 29 29 35 34 34 33 33 31 29 28 26 25 22 17 13 13 9 10 13 13 13 13 11 10 9
7 10 18 17 13 17 23 29 31 33 33 31 29 28 28 31 31 29 28 25 25 23 19 17 13 11 11 11 12 11 12 13 5
19 14 2 11 11 14 21 25 31 32 33 31 30 24 20 28 32 29 29 25 23 21 26 22 18 13 13 10 10 13 13 10 8
16 19 16 6 9 12 18 21 25 30 32 27 27 25 20 19 29 25 23 20 15 19 16 22 19 14 12 11 9 9 7 8 9
6 19 14 10 5 1 9 15 25 29 31 22 18 29 16 20 17 20 12 21 19 25 17 16 13 11 9 9 10 11 10 8 7
12 13 4 10 11 13 7 7 18 16 21 18 23 27 26 20 19 16 12 11 15 17 19 20 18 11 11 9 6 4 4 6 8
9 8 4 1 5 14 11 7 13 16 15 17 22 24 22 18 19 20 15 13 12 14 17 17 18 12 10 11 7 3 1 2 7
9 9 9 8 9 13 13 9 9 13 10 17 22 22 20 19 19 14 13 13 11 11 13 15 16 16 13 8 3 3 1 5 11
8 8 10 12 16 14 12 13 14 16 13 10 5 14 15 17 17 16 14 13 11 13 15 16 16 14 10 6 5 4 2 6 12
9 10 13 14 13 16 17 16 19 22 20 14 15 14 15 22 21 16 15 13 13 16 18 16 13 11 11 9 8 8 7 5 9
7 12 12 14 15 19 22 21 21 23 19 15 15 19 18 19 19 18 16 16 14 13 14 14 12 10 10 11 10 8 8 9 9
5 12 14 11 17 16 19 21 21 20 17 19 21 22 21 19 17 15 15 14 13 13 10 9 12 11 11 11 10 8 7 5 5
6 10 12 10 15 14 17 16 18 15 15 14 18 19 17 19 18 16 14 13 13 9 8 6 6 11 14 15 10 7 7 5 4
5 5 11 14 14 12 10 12 13 13 10 9 10 15 13 10 13 12 11 10 12 9 9 8 7 5 12 12 7 5 3 3 3
10 8 6 8 10 11 9 9 9 8 8 8 8 8 8 6 6 8 8 6 5 7 5 7 7 5 3 5 6 5 5 4 3

GFSFLT1_925_spd_117.txt.gz
Wind_Speed
15 10 17 19 23 26 27 29 32 33 34 32 30 27 25 20 19 17 16 15 14 17 18 16 13 13 13 11 9 7 7 5 4
19 16 15 19 23 26 27 29 31 37 36 35 32 30 27 23 20 19 19 14 16 16 16 16 13 12 13 11 11 9 9 8 6
17 18 13 13 19 26 28 31 36 38 39 39 35 31 29 27 25 21 18 17 18 13 14 13 15 12 16 13 11 10 10 9 7
19 16 15 13 18 25 30 29 30 36 35 36 36 33 30 28 27 23 18 18 18 14 13 14 14 12 13 14 13 11 11 11 10
3 18 18 16 22 23 27 33 30 32 35 38 38 35 31 30 26 24 21 19 16 15 13 12 14 15 14 14 11 10 13 11 11
5 1 4 9 16 21 24 28 30 34 36 39 38 34 32 29 26 26 25 22 19 18 14 12 11 12 15 14 11 11 10 11 11
11 3 5 5 5 11 21 25 30 31 32 36 38 35 32 31 30 28 27 25 23 21 19 15 15 11 10 12 12 12 11 11 9
12 11 7 4 4 6 14 20 24 26 28 36 38 36 34 35 32 31 26 26 25 24 22 19 16 13 12 12 11 11 11 12 14
10 8 9 7 5 4 3 9 14 26 32 34 36 35 36 32 30 30 25 25 26 23 22 15 16 14 12 11 9 8 10 10 11
5 8 9 7 8 7 7 5 3 2 8 20 23 25 27 28 28 27 21 20 19 25 17 15 20 16 15 13 11 9 8 8 7
7 8 8 7 13 6 2 5 2 3 4 7 13 16 19 20 22 21 18 18 14 17 18 23 24 20 11 11 8 6 6 6 8
10 10 11 6 14 10 5 3 7 9 9 11 16 16 19 20 18 16 20 21 16 9 18 22 19 21 20 14 10 9 4 2 6
10 13 14 17 14 13 11 8 6 13 10 9 10 15 19 18 18 17 17 13 10 14 17 15 18 18 14 12 11 9 6 7 12
6 7 11 10 10 11 10 6 9 14 11 11 7 16 9 10 12 15 10 10 11 10 9 13 15 13 10 10 8 6 10 12 12
4 5 6 9 12 13 12 11 16 18 13 6 13 16 14 12 12 16 15 9 10 12 15 16 16 15 12 9 8 8 9 9 10
5 6 6 8 13 16 17 14 14 17 14 13 14 17 16 16 17 15 14 14 14 14 14 14 14 13 13 11 9 8 8 9 13
6 7 9 8 11 16 17 18 17 16 14 15 17 19 18 17 14 13 13 13 13 13 12 11 11 10 10 10 9 9 10 10 10
7 7 7 9 12 14 14 15 17 15 13 16 22 21 19 17 17 15 14 13 12 9 7 6 7 7 8 9 5 5 6 8 8
11 10 9 9 9 11 11 13 15 13 12 12 14 16 14 13 12 13 11 12 12 12 11 8 7 5 7 7 3 2 1 2 3
9 8 10 11 10 9 9 10 11 12 12 12 11 12 11 8 7 9 9 7 6 4 4 4 4 5 5 3 3 4 6 8 6

GFSFLT1_925_spd_120.txt.gz
Wind_Speed
16 15 15 17 22 25 26 29 33 34 34 33 29 25 24 22 20 19 18 17 16 14 16 16 14 13 11 10 9 8 8 7 7
18 19 19 20 23 25 27 27 32 37 37 35 32 29 25 23 21 20 19 16 16 17 16 16 14 14 14 14 13 12 10 10 8
15 14 16 15 20 25 27 30 34 38 37 38 37 33 29 26 24 21 19 17 17 16 15 15 16 15 13 15 15 14 13 11 10
8 13 16 16 19 25 29 27 29 36 35 36 37 35 32 29 26 23 20 18 17 15 13 13 14 15 16 16 16 14 13 12 11
7 12 14 15 20 21 24 28 25 33 36 37 38 37 34 31 27 25 23 21 17 17 16 12 12 16 15 13 15 15 16 14 13
7 8 7 7 9 14 20 24 28 30 37 39 39 36 35 33 29 27 26 23 19 17 16 13 11 12 15 16 15 15 14 15 14
2 9 9 6 7 10 17 20 26 29 34 40 40 37 35 34 32 30 28 25 23 21 18 16 13 13 12 13 15 15 14 15 13
7 6 3 9 8 7 12 17 20 22 26 29 34 37 36 37 35 31 28 26 26 23 22 20 17 13 13 11 13 14 16 13 12
13 11 10 6 3 10 8 6 8 12 15 22 24 26 32 33 34 31 29 27 26 24 23 20 19 18 14 13 11 12 13 11 13
8 8 9 9 5 7 10 10 8 7 9 13 15 19 19 22 29 30 28 27 27 26 24 21 19 16 13 16 12 10 7 7 10
5 6 7 7 11 14 5 5 8 8 10 9 8 9 8 7 11 19 29 28 24 20 20 15 14 12 14 18 14 8 5 7 9
3 3 6 8 10 9 7 3 6 11 13 14 8 4 11 13 14 16 18 20 23 16 15 11 11 18 19 22 20 17 11 6 5
7 7 6 8 9 10 10 9 2 7 12 10 10 7 2 13 12 16 18 16 16 13 11 7 9 16 17 19 17 15 12 12 7
8 9 13 13 13 15 18 13 5 8 7 5 5 3 4 10 15 11 12 14 10 8 8 10 12 13 13 11 10 10 13 13 12
10 12 15 18 18 20 19 16 13 12 10 4 4 3 6 7 7 12 14 11 7 6 7 10 10 10 12 7 4 5 9 11 11
9 11 14 15 17 18 22 21 18 18 14 7 5 6 7 6 9 12 11 11 15 11 11 14 14 10 9 7 5 6 5 7 9
6 9 11 13 17 19 20 21 21 17 13 12 10 12 10 10 11 13 10 11 13 13 10 11 11 10 10 8 7 7 7 8 8
7 8 11 13 15 16 16 17 18 16 17 19 23 22 21 20 18 18 17 16 14 12 7 6 9 7 8 8 7 7 6 4 4
7 9 10 11 10 12 13 16 16 14 12 14 16 19 19 19 19 18 18 19 17 15 13 9 5 8 7 10 7 8 6 4 2
6 8 9 10 9 10 10 12 14 13 11 12 14 13 13 15 16 15 15 13 12 11 9 8 9 9 7 4 5 2 1 1 4

GFSFLT1_925_spd_123.txt.gz
Wind_Speed
21 19 19 19 24 26 27 26 24 23 22 21 22 22 23 21 19 15 14 14 12 11 11 11 12 13 13 12 13 10 8 6 6
19 20 20 21 24 26 25 25 26 26 24 24 23 24 23 22 22 19 16 16 16 13 13 12 15 14 13 13 13 11 10 9 9
19 16 11 10 17 25 25 26 27 25 24 27 26 24 22 21 21 21 18 17 16 15 14 15 16 15 14 12 13 12 12 11 10
17 16 17 15 19 27 28 25 25 25 25 25 26 26 24 22 20 23 21 18 17 16 15 14 14 14 15 15 12 12 13 12 12
13 15 14 14 20 23 25 26 26 27 26 25 26 25 24 25 23 21 20 22 20 17 16 15 12 13 15 15 11 12 15 13 12
5 8 9 9 11 15 19 23 23 24 25 27 25 24 24 24 23 22 21 20 21 19 17 17 14 13 13 15 14 13 14 14 13
1 7 9 9 9 15 18 19 18 20 22 26 21 20 22 23 24 25 24 23 23 21 20 18 16 13 11 11 11 13 14 14 16
9 7 4 8 11 11 12 12 13 17 17 20 25 20 22 26 21 22 23 22 22 23 22 20 16 14 12 12 10 10 13 15 16
11 10 9 6 5 1 2 9 10 14 19 23 17 25 21 17 20 23 21 23 22 23 23 22 18 16 15 13 9 11 12 13 12
9 7 8 9 9 10 2 6 16 14 14 14 20 19 17 17 23 20 27 27 27 27 23 23 21 17 14 14 14 13 11 11 10
9 8 7 5 7 8 7 7 7 7 7 10 11 8 9 7 6 11 15 15 21 21 20 25 23 16 16 13 13 11 11 10 9
5 7 9 11 11 11 9 7 5 6 6 8 9 7 5 5 7 12 15 19 17 25 22 23 21 17 15 12 12 16 15 10 6
6 7 8 10 11 9 9 9 6 3 7 5 5 7 7 5 8 15 18 13 13 21 20 22 15 8 7 10 13 20 21 19 16
5 6 9 9 11 13 14 14 7 7 9 7 2 4 1 7 4 9 13 12 16 17 16 17 13 10 4 6 10 12 16 13 12
5 6 7 9 12 15 16 15 13 13 11 5 4 4 1 4 3 4 8 15 11 9 9 11 12 11 8 6 4 4 6 6 5
6 6 8 9 10 14 14 14 14 16 11 9 10 12 11 9 7 7 7 9 8 7 9 10 12 14 14 9 7 4 4 5 3
7 8 8 9 11 14 15 15 18 18 16 14 14 15 14 11 12 12 10 10 9 8 5 5 9 11 9 7 7 6 6 8 6
6 8 9 10 11 12 13 16 18 17 18 21 24 21 21 21 18 16 17 17 16 13 9 8 9 10 9 9 10 8 9 8 7
6 6 7 10 11 11 11 15 16 16 15 16 18 19 19 19 19 18 18 20 21 20 18 13 11 11 9 11 10 8 6 6 7
9 8 9 9 9 9 11 13 15 15 14 14 14 16 17 15 13 15 13 11 9 13 14 16 15 12 11 9 9 7 4 2 1

GFSFLT1_925_spd_126.txt.gz
Wind_Speed
23 21 19 19 19 20 22 22 21 21 21 22 21 21 20 17 14 14 15 13 13 10 10 9 8 10 10 9 10 9 8 9 8
23 19 20 19 21 21 22 22 23 23 21 20 21 21 21 19 16 16 12 10 11 12 11 10 10 10 11 11 11 10 9 9 9
20 20 17 17 20 21 21 22 22 21 21 20 20 19 19 20 19 17 16 12 13 11 9 9 8 10 11 10 11 12 12 11 10
11 12 16 14 18 21 21 20 21 21 21 20 20 21 20 20 19 18 17 16 13 13 11 10 10 9 9 10 11 11 12 12 11
8 13 16 13 15 20 19 20 21 22 21 21 21 20 20 20 19 18 18 17 16 14 13 11 10 9 9 10 11 11 14 13 13
6 10 12 13 14 16 20 21 20 20 21 21 19 18 19 19 19 19 19 18 17 16 15 13 12 12 10 10 12 12 12 13 13
3 1 3 9 11 12 14 17 17 18 18 17 18 18 19 18 19 19 18 17 16 16 16 15 13 13 11 10 10 11 13 12 13
10 12 9 4 6 10 11 13 15 13 17 14 15 16 16 16 15 14 14 15 16 15 16 16 16 14 13 11 11 13 11 12 11
9 9 11 11 8 4 1 6 7 11 14 18 11 19 17 13 14 16 14 14 16 18 16 16 17 17 15 14 14 14 14 13 10
7 8 9 9 9 11 10 6 5 5 3 7 13 15 14 14 18 16 13 14 19 20 17 16 17 18 17 17 16 17 14 12 8
6 9 8 7 9 8 4 3 1 2 3 2 6 13 15 13 13 13 12 15 16 17 24 26 16 17 18 17 15 16 12 11 9
7 8 8 8 7 7 9 9 9 6 3 2 2 6 8 8 7 5 9 11 13 15 15 21 21 30 20 20 15 12 14 14 12
7 8 8 9 10 8 9 9 3 2 3 4 2 5 6 6 6 5 8 10 14 15 17 23 21 22 20 18 14 12 13 14 14
6 7 9 9 9 11 12 11 8 12 11 8 4 2 2 1 1 3 5 7 6 11 11 15 18 20 15 11 8 8 10 12 14
6 5 6 8 8 12 12 11 10 10 9 4 3 3 3 4 4 7 7 3 3 2 3 6 8 11 9 9 4 3 3 4 7
6 4 5 6 8 11 13 13 11 10 7 5 6 6 7 7 6 9 9 10 8 9 9 9 9 7 8 9 9 8 7 4 3
7 4 5 6 7 10 12 13 14 12 9 7 9 10 9 9 11 13 12 10 10 9 9 9 9 7 5 6 7 7 6 5 5
8 7 7 8 7 10 11 11 13 13 12 14 14 14 14 15 16 17 17 16 14 13 12 9 7 7 7 5 5 8 10 12 10
12 9 8 8 8 9 9 11 12 12 10 9 11 15 16 16 20 18 20 20 18 16 14 11 11 10 7 8 8 8 8 9 9
12 11 10 9 10 9 10 10 11 10 9 10 12 13 12 12 13 14 12 12 11 13 14 13 13 12 10 10 10 7 6 3 2

GFSFLT1_925_spd_129.txt.gz
Wind_Speed
19 17 17 19 20 21 21 20 20 19 21 20 20 19 18 16 14 12 13 12 11 9 10 8 7 5 8 8 8 9 8 9 10
23 22 17 19 21 21 19 20 20 20 19 19 19 20 19 18 16 15 14 10 10 10 7 8 6 4 8 9 10 10 9 11 11
18 18 20 17 19 23 22 21 22 20 19 19 18 18 19 20 20 17 15 9 9 7 8 4 5 6 10 10 11 11 10 14 13
9 20 23 11 18 22 22 21 22 21 20 19 17 17 18 18 19 20 17 15 13 11 10 9 9 9 10 10 10 10 11 13 13
7 9 4 15 13 21 20 20 18 21 20 20 18 17 16 17 17 17 17 15 15 13 12 11 11 10 10 10 10 11 11 12 14
5 5 4 9 10 11 15 19 18 17 19 19 18 17 17 17 17 16 15 14 14 13 13 13 13 12 12 11 11 10 11 11 12
3 6 7 15 14 12 15 15 16 16 16 18 17 18 17 17 16 15 15 14 13 13 12 13 14 14 13 13 11 11 11 12 13
8 9 9 8 3 6 6 12 12 15 15 13 14 15 17 16 15 14 13 13 12 11 12 11 13 14 13 12 12 14 14 12 12
4 6 7 9 13 11 5 5 6 10 12 14 11 15 14 12 13 14 13 14 13 12 13 13 12 13 13 14 15 13 8 13 13
7 7 8 7 7 7 7 8 6 4 4 6 12 11 13 16 16 17 17 17 16 17 18 17 18 17 16 15 14 19 17 16 12
6 6 6 4 5 6 6 4 2 0 2 2 6 11 15 15 16 16 16 13 13 15 15 16 18 17 17 18 16 19 19 18 15
7 4 4 4 4 6 6 4 5 3 3 4 6 5 11 12 10 8 10 10 10 12 10 12 16 18 18 21 19 18 17 13 9
6 6 5 4 7 7 6 3 5 6 7 6 4 6 4 3 2 1 3 6 7 9 11 15 15 15 15 14 16 18 15 14 11
7 6 7 7 8 9 7 6 7 9 9 7 4 8 6 4 5 2 3 1 1 3 3 2 2 6 6 7 8 7 7 3 5
7 8 8 8 11 11 10 9 8 8 9 8 10 11 8 8 6 5 5 5 6 5 6 9 10 11 11 10 10 5 5 1 6
6 7 9 9 10 11 12 12 10 10 9 8 9 8 10 8 7 8 12 11 8 8 11 11 10 10 9 8 9 10 13 6 2
6 6 8 11 9 9 11 12 14 13 11 9 10 11 11 10 9 10 9 8 6 7 8 7 7 8 8 7 8 8 7 7 7
9 8 9 11 8 8 9 10 12 12 14 11 12 12 12 14 12 14 14 14 12 11 10 8 7 6 6 6 8 10 11 11 10
8 8 11 10 7 8 8 9 10 10 9 9 13 15 12 11 11 11 11 12 14 16 13 10 9 10 8 11 10 9 9 10 9
8 9 10 10 10 10 9 8 9 8 8 11 11 11 11 11 10 9 7 8 10 11 11 13 13 13 13 12 9 8 6 5 3